Time,TemperatureF,DewpointF,PressureIn,WindDirection,WindDirectionDegrees,WindSpeedMPH,WindSpeedGustMPH,Humidity,HourlyPrecipIn,Conditions,Clouds,dailyrainin,SolarRadiationWatts/m^2,SoftwareType,DateUTC
2013-02-19 00:00:00,18.1,-8.1,29.97,NNW,342,3.0,12.0,30,0.00,,CLR,0.00,0.00,VWS V14.01,2013-02-19 05:00:00,
2013-02-19 00:01:00,18.1,-8.1,29.97,North,354,6.0,12.0,30,0.00,,CLR,0.00,0.00,VWS V14.01,2013-02-19 05:01:00,
2013-02-19 00:05:00,18.1,-8.1,29.97,NNW,339,2.0,7.0,30,0.00,,CLR,0.00,0.00,VWS V14.01,2013-02-19 05:05:00,
2013-02-19 00:06:00,18.1,-8.8,29.97,NNW,333,7.0,7.0,29,0.00,,CLR,0.00,0.00,VWS V14.01,2013-02-19 05:06:00,
2013-02-19 00:10:00,18.1,-8.8,29.97,NNW,346,0.0,9.0,29,0.00,,CLR,0.00,0.00,VWS V14.01,2013-02-19 05:10:00,
2013-02-19 00:11:00,18.1,-8.8,29.97,NNW,346,0.0,9.0,29,0.00,,CLR,0.00,0.00,VWS V14.01,2013-02-19 05:11:00,
2013-02-19 00:15:00,18.1,-8.8,29.97,NNW,342,3.0,9.0,29,0.00,,CLR,0.00,0.00,VWS V14.01,2013-02-19 05:15:00,
2013-02-19 00:16:00,18.1,-8.8,29.97,NW,323,8.0,9.0,29,0.00,,CLR,0.00,0.00,VWS V14.01,2013-02-19 05:16:00,
2013-02-19 00:21:00,18.1,-8.1,29.97,NNW,344,0.0,9.0,30,0.00,,CLR,0.00,0.00,VWS V14.01,2013-02-19 05:21:00,
2013-02-19 00:22:00,18.1,-8.1,29.97,NNW,344,7.0,10.0,30,0.00,,CLR,0.00,0.00,VWS V14.01,2013-02-19 05:22:00,
2013-02-19 00:26:00,18.1,-8.1,29.97,NNW,340,2.0,11.0,30,0.00,,CLR,0.00,0.00,VWS V14.01,2013-02-19 05:26:00,
2013-02-19 00:27:00,18.1,-7.4,29.97,NNW,340,6.0,11.0,31,0.00,,CLR,0.00,0.00,VWS V14.01,2013-02-19 05:27:00,
2013-02-19 00:28:00,18.1,-7.4,29.97,NNW,328,2.0,11.0,31,0.00,,CLR,0.00,0.00,VWS V14.01,2013-02-19 05:28:00,
2013-02-19 00:30:00,18.1,-10.2,29.98,NNW,347,6.0,13.0,27,0.00,,FEW080,0.00,0.00,VWS V14.01,2013-02-19 05:30:00,
2013-02-19 00:31:00,18.1,-8.8,29.97,NNW,333,11.0,12.0,29,0.00,,CLR,0.00,0.00,VWS V14.01,2013-02-19 05:31:00,
2013-02-19 00:32:00,18.1,-8.1,29.97,NNW,337,3.0,7.0,30,0.00,,CLR,0.00,0.00,VWS V14.01,2013-02-19 05:32:00,
2013-02-19 00:33:00,18.1,-8.1,29.97,NNW,336,2.0,7.0,30,0.00,,CLR,0.00,0.00,VWS V14.01,2013-02-19 05:33:00,
2013-02-19 00:36:00,18.1,-8.8,29.97,NNW,328,3.0,7.0,29,0.00,,CLR,0.00,0.00,VWS V14.01,2013-02-19 05:36:00,
2013-02-19 00:38:00,18.1,-8.1,29.97,NNW,346,0.0,11.0,30,0.00,,CLR,0.00,0.00,VWS V14.01,2013-02-19 05:38:00,
2013-02-19 00:41:00,18.1,-8.8,29.97,NNW,340,0.0,11.0,29,0.00,,CLR,0.00,0.00,VWS V14.01,2013-02-19 05:41:00,
2013-02-19 00:43:00,18.1,-8.1,29.97,NNW,346,8.0,11.0,30,0.00,,CLR,0.00,0.00,VWS V14.01,2013-02-19 05:43:00,
2013-02-19 00:46:00,18.1,-8.8,29.97,North,354,0.0,11.0,29,0.00,,CLR,0.00,0.00,VWS V14.01,2013-02-19 05:46:00,
2013-02-19 00:48:00,18.1,-8.8,29.97,NW,322,0.0,11.0,29,0.00,,CLR,0.00,0.00,VWS V14.01,2013-02-19 05:48:00,
2013-02-19 00:53:00,18.0,-8.2,29.97,NNW,347,8.0,11.0,30,0.00,,CLR,0.00,0.00,VWS V14.01,2013-02-19 05:53:00,
2013-02-19 00:54:00,18.0,-8.2,29.97,NNW,335,8.0,11.0,30,0.00,,CLR,0.00,0.00,VWS V14.01,2013-02-19 05:54:00,
2013-02-19 00:58:00,18.0,-9.6,29.97,NNW,340,0.0,11.0,28,0.00,,CLR,0.00,0.00,VWS V14.01,2013-02-19 05:58:00,
2013-02-19 00:59:00,18.0,-8.2,29.97,NNW,336,0.0,11.0,30,0.00,,CLR,0.00,0.00,VWS V14.01,2013-02-19 05:59:00,
2013-02-19 01:00:00,18.0,-8.2,29.97,NNW,328,3.0,11.0,30,0.00,,CLR,0.00,0.00,VWS V14.01,2013-02-19 06:00:00,
2013-02-19 01:04:00,18.0,-8.2,29.97,NNW,336,0.0,2.0,30,0.00,,CLR,0.00,0.00,VWS V14.01,2013-02-19 06:04:00,
2013-02-19 01:05:00,18.0,-8.2,29.97,NNW,333,1.0,2.0,30,0.00,,CLR,0.00,0.00,VWS V14.01,2013-02-19 06:05:00,
2013-02-19 01:09:00,18.0,-9.6,29.97,NNW,339,2.0,8.0,28,0.00,,CLR,0.00,0.00,VWS V14.01,2013-02-19 06:09:00,
2013-02-19 01:10:00,18.0,-8.2,29.97,NNW,344,1.0,8.0,30,0.00,,CLR,0.00,0.00,VWS V14.01,2013-02-19 06:10:00,
2013-02-19 01:11:00,18.0,-8.9,29.97,NNW,333,2.0,8.0,29,0.00,,CLR,0.00,0.00,VWS V14.01,2013-02-19 06:11:00,
2013-02-19 01:14:00,18.0,-9.6,29.97,NNW,328,10.0,13.0,28,0.00,,CLR,0.00,0.00,VWS V14.01,2013-02-19 06:14:00,
2013-02-19 01:15:00,18.0,-9.6,29.97,NNW,342,6.0,13.0,28,0.00,,CLR,0.00,0.00,VWS V14.01,2013-02-19 06:15:00,
2013-02-19 01:17:00,18.0,-9.6,29.98,NNW,332,1.0,13.0,28,0.00,,CLR,0.00,0.00,VWS V14.01,2013-02-19 06:17:00,
2013-02-19 01:19:00,18.0,-9.6,29.98,NNW,336,7.0,13.0,28,0.00,,CLR,0.00,0.00,VWS V14.01,2013-02-19 06:19:00,
2013-02-19 01:21:00,18.0,-9.6,29.98,NNW,346,7.0,13.0,28,0.00,,CLR,0.00,0.00,VWS V14.01,2013-02-19 06:21:00,
2013-02-19 01:22:00,18.0,-8.9,29.98,NNW,347,2.0,13.0,29,0.00,,CLR,0.00,0.00,VWS V14.01,2013-02-19 06:22:00,
2013-02-19 01:25:00,18.0,-9.6,29.98,NNW,332,6.0,13.0,28,0.00,,CLR,0.00,0.00,VWS V14.01,2013-02-19 06:25:00,
2013-02-19 01:26:00,18.1,-9.5,29.98,NNW,336,2.0,13.0,28,0.00,,CLR,0.00,0.00,VWS V14.01,2013-02-19 06:26:00,
2013-02-19 01:27:00,18.1,-9.5,29.98,NNW,333,6.0,13.0,28,0.00,,CLR,0.00,0.00,VWS V14.01,2013-02-19 06:27:00,
2013-02-19 01:30:00,18.1,-9.5,29.98,NNW,343,0.0,13.0,28,0.00,,CLR,0.00,0.00,VWS V14.01,2013-02-19 06:30:00,
2013-02-19 01:31:00,18.1,-9.5,29.99,NNW,342,4.0,13.0,28,0.00,,CLR,0.00,0.00,VWS V14.01,2013-02-19 06:31:00,
2013-02-19 01:33:00,18.1,-9.5,29.99,NNW,344,2.0,6.0,28,0.00,,CLR,0.00,0.00,VWS V14.01,2013-02-19 06:33:00,
2013-02-19 01:36:00,18.1,-8.8,29.99,North,350,5.0,8.0,29,0.00,,CLR,0.00,0.00,VWS V14.01,2013-02-19 06:36:00,
2013-02-19 01:37:00,18.1,-8.8,29.99,NNW,337,0.0,8.0,29,0.00,,CLR,0.00,0.00,VWS V14.01,2013-02-19 06:37:00,
2013-02-19 01:38:00,18.1,-8.8,29.99,NNW,335,3.0,8.0,29,0.00,,CLR,0.00,0.00,VWS V14.01,2013-02-19 06:38:00,
2013-02-19 01:41:00,18.0,-8.2,29.99,NNW,333,0.0,8.0,30,0.00,,CLR,0.00,0.00,VWS V14.01,2013-02-19 06:41:00,
2013-02-19 01:42:00,18.0,-8.9,29.99,NNW,346,0.0,8.0,29,0.00,,CLR,0.00,0.00,VWS V14.01,2013-02-19 06:42:00,
2013-02-19 01:43:00,18.0,-8.9,29.99,NNW,344,6.0,8.0,29,0.00,,CLR,0.00,0.00,VWS V14.01,2013-02-19 06:43:00,
2013-02-19 01:46:00,18.0,-8.9,29.99,NNW,343,1.0,8.0,29,0.00,,CLR,0.00,0.00,VWS V14.01,2013-02-19 06:46:00,
2013-02-19 01:47:00,18.0,-8.9,29.99,NNW,342,0.0,8.0,29,0.00,,CLR,0.00,0.00,VWS V14.01,2013-02-19 06:47:00,
2013-02-19 01:48:00,18.0,-8.9,29.99,North,349,3.0,8.0,29,0.00,,CLR,0.00,0.00,VWS V14.01,2013-02-19 06:48:00,
2013-02-19 01:49:00,18.0,-8.2,29.99,NNW,339,0.0,8.0,30,0.00,,CLR,0.00,0.00,VWS V14.01,2013-02-19 06:49:00,
2013-02-19 01:52:00,18.0,-8.9,29.99,NNW,343,8.0,9.0,29,0.00,,CLR,0.00,0.00,VWS V14.01,2013-02-19 06:52:00,
2013-02-19 01:53:00,18.0,-8.9,29.99,NNW,333,1.0,9.0,29,0.00,,CLR,0.00,0.00,VWS V14.01,2013-02-19 06:53:00,
2013-02-19 01:54:00,18.0,-8.9,29.99,NNW,347,11.0,14.0,29,0.00,,CLR,0.00,0.00,VWS V14.01,2013-02-19 06:54:00,
2013-02-19 01:57:00,18.0,-8.2,29.99,NNW,329,0.0,14.0,30,0.00,,CLR,0.00,0.00,VWS V14.01,2013-02-19 06:57:00,
2013-02-19 01:58:00,18.0,-8.9,29.99,NNW,336,0.0,14.0,29,0.00,,CLR,0.00,0.00,VWS V14.01,2013-02-19 06:58:00,
2013-02-19 01:59:00,18.0,-9.6,29.99,NNW,339,0.0,14.0,28,0.00,,CLR,0.00,0.00,VWS V14.01,2013-02-19 06:59:00,
2013-02-19 02:00:00,18.0,-9.6,29.99,NNW,340,0.0,14.0,28,0.00,,CLR,0.00,0.00,VWS V14.01,2013-02-19 07:00:00,
2013-02-19 02:02:00,18.0,-8.9,29.99,NNW,328,6.0,6.0,29,0.00,,CLR,0.00,0.00,VWS V14.01,2013-02-19 07:02:00,
2013-02-19 02:03:00,18.0,-9.6,29.99,NNW,342,10.0,10.0,28,0.00,,CLR,0.00,0.00,VWS V14.01,2013-02-19 07:03:00,
2013-02-19 02:05:00,18.0,-8.2,29.99,NW,325,6.0,17.0,30,0.00,,CLR,0.00,0.00,VWS V14.01,2013-02-19 07:05:00,
2013-02-19 02:07:00,18.0,-9.6,29.99,NNW,335,8.0,17.0,28,0.00,,CLR,0.00,0.00,VWS V14.01,2013-02-19 07:07:00,
2013-02-19 02:08:00,18.0,-8.9,29.99,North,349,14.0,17.0,29,0.00,,CLR,0.00,0.00,VWS V14.01,2013-02-19 07:08:00,
2013-02-19 02:10:00,18.1,-8.8,29.99,NNW,342,11.0,17.0,29,0.00,,CLR,0.00,0.00,VWS V14.01,2013-02-19 07:10:00,
2013-02-19 02:12:00,18.1,-8.8,29.99,NNW,344,4.0,17.0,29,0.00,,CLR,0.00,0.00,VWS V14.01,2013-02-19 07:12:00,
2013-02-19 02:14:00,18.1,-9.5,29.99,North,352,4.0,17.0,28,0.00,,CLR,0.00,0.00,VWS V14.01,2013-02-19 07:14:00,
2013-02-19 02:15:00,18.1,-8.1,29.99,NNW,339,14.0,17.0,30,0.00,,CLR,0.00,0.00,VWS V14.01,2013-02-19 07:15:00,
2013-02-19 02:17:00,18.1,-8.8,30.00,NNW,336,3.0,17.0,29,0.00,,CLR,0.00,0.00,VWS V14.01,2013-02-19 07:17:00,
2013-02-19 02:19:00,18.1,-8.8,30.00,NNW,343,0.0,17.0,29,0.00,,CLR,0.00,0.00,VWS V14.01,2013-02-19 07:19:00,
2013-02-19 02:20:00,18.1,-8.8,30.00,NNW,346,2.0,17.0,29,0.00,,CLR,0.00,0.00,VWS V14.01,2013-02-19 07:20:00,
2013-02-19 02:22:00,18.1,-8.8,30.00,NNW,337,0.0,17.0,29,0.00,,CLR,0.00,0.00,VWS V14.01,2013-02-19 07:22:00,
2013-02-19 02:24:00,18.1,-8.8,30.00,NNW,329,5.0,17.0,29,0.00,,CLR,0.00,0.00,VWS V14.01,2013-02-19 07:24:00,
2013-02-19 02:26:00,18.1,-8.8,30.00,NNW,329,5.0,17.0,29,0.00,,CLR,0.00,0.00,VWS V14.01,2013-02-19 07:26:00,
2013-02-19 02:28:00,18.1,-8.8,30.00,NNW,342,7.0,17.0,29,0.00,,CLR,0.00,0.00,VWS V14.01,2013-02-19 07:28:00,
2013-02-19 02:29:00,18.1,-8.8,30.00,NNW,343,3.0,17.0,29,0.00,,CLR,0.00,0.00,VWS V14.01,2013-02-19 07:29:00,
2013-02-19 02:30:00,19.7,-7.4,30.01,NNW,347,2.0,18.0,29,0.00,,FEW080,0.00,0.00,VWS V14.01,2013-02-19 07:30:00,
2013-02-19 02:31:00,18.1,-8.8,30.00,NNW,329,0.0,17.0,29,0.00,,CLR,0.00,0.00,VWS V14.01,2013-02-19 07:31:00,
2013-02-19 02:33:00,18.1,-9.5,30.00,NNW,344,2.0,10.0,28,0.00,,CLR,0.00,0.00,VWS V14.01,2013-02-19 07:33:00,
2013-02-19 02:34:00,18.1,-8.8,30.00,NNW,333,7.0,10.0,29,0.00,,CLR,0.00,0.00,VWS V14.01,2013-02-19 07:34:00,
2013-02-19 02:37:00,18.3,-8.6,30.00,NNW,333,1.0,10.0,29,0.00,,CLR,0.00,0.00,VWS V14.01,2013-02-19 07:37:00,
2013-02-19 02:38:00,18.3,-7.9,30.00,NNW,340,4.0,10.0,30,0.00,,CLR,0.00,0.00,VWS V14.01,2013-02-19 07:38:00,
2013-02-19 02:39:00,18.3,-8.6,30.00,NNW,343,1.0,11.0,29,0.00,,CLR,0.00,0.00,VWS V14.01,2013-02-19 07:39:00,
2013-02-19 02:42:00,18.4,-9.2,30.00,NNW,333,0.0,11.0,28,0.00,,CLR,0.00,0.00,VWS V14.01,2013-02-19 07:42:00,
2013-02-19 02:43:00,18.4,-7.8,30.00,NW,325,3.0,11.0,30,0.00,,CLR,0.00,0.00,VWS V14.01,2013-02-19 07:43:00,
2013-02-19 02:45:00,18.6,-9.8,30.00,NNW,330,2.0,11.0,27,0.00,,CLR,0.00,0.00,VWS V14.01,2013-02-19 07:45:00,
2013-02-19 02:47:00,18.6,-9.1,30.01,NNW,332,0.0,11.0,28,0.00,,CLR,0.00,0.00,VWS V14.01,2013-02-19 07:47:00,
2013-02-19 02:48:00,18.8,-8.9,30.01,NNW,332,0.0,11.0,28,0.00,,CLR,0.00,0.00,VWS V14.01,2013-02-19 07:48:00,
2013-02-19 02:50:00,18.8,-8.9,30.01,NNW,336,0.0,11.0,28,0.00,,CLR,0.00,0.00,VWS V14.01,2013-02-19 07:50:00,
2013-02-19 02:52:00,18.8,-8.2,30.01,North,349,7.0,11.0,29,0.00,,CLR,0.00,0.00,VWS V14.01,2013-02-19 07:52:00,
2013-02-19 02:53:00,18.9,-8.1,30.01,NNW,332,7.0,11.0,29,0.00,,CLR,0.00,0.00,VWS V14.01,2013-02-19 07:53:00,
2013-02-19 02:56:00,18.9,-8.1,30.01,NW,326,6.0,11.0,29,0.00,,CLR,0.00,0.00,VWS V14.01,2013-02-19 07:56:00,
2013-02-19 02:57:00,19.1,-8.6,30.01,NW,325,7.0,11.0,28,0.00,,CLR,0.00,0.00,VWS V14.01,2013-02-19 07:57:00,
2013-02-19 02:59:00,19.1,-8.6,30.01,NW,325,7.0,11.0,28,0.00,,CLR,0.00,0.00,VWS V14.01,2013-02-19 07:59:00,
2013-02-19 03:00:00,19.9,-6.5,30.01,North,349,6.0,18.0,30,0.00,,FEW080,0.00,0.00,VWS V14.01,2013-02-19 08:00:00,
2013-02-19 03:01:00,19.2,-7.8,30.00,NNW,337,9.0,14.0,29,0.00,,CLR,0.00,0.00,VWS V14.01,2013-02-19 08:01:00,
2013-02-19 03:02:00,19.4,-8.4,30.00,North,354,10.0,11.0,28,0.00,,CLR,0.00,0.00,VWS V14.01,2013-02-19 08:02:00,
2013-02-19 03:04:00,19.4,-8.4,30.00,NNW,344,6.0,12.0,28,0.00,,CLR,0.00,0.00,VWS V14.01,2013-02-19 08:04:00,
2013-02-19 03:06:00,19.4,-8.4,30.00,NNW,343,0.0,12.0,28,0.00,,CLR,0.00,0.00,VWS V14.01,2013-02-19 08:06:00,
2013-02-19 03:08:00,19.5,-8.3,30.00,NNW,347,6.0,16.0,28,0.00,,CLR,0.00,0.00,VWS V14.01,2013-02-19 08:08:00,
2013-02-19 03:09:00,19.5,-7.6,30.00,NNW,337,8.0,16.0,29,0.00,,CLR,0.00,0.00,VWS V14.01,2013-02-19 08:09:00,
2013-02-19 03:11:00,19.5,-7.6,30.00,North,354,1.0,16.0,29,0.00,,CLR,0.00,0.00,VWS V14.01,2013-02-19 08:11:00,
2013-02-19 03:13:00,19.5,-7.6,30.00,NNW,337,2.0,16.0,29,0.00,,CLR,0.00,0.00,VWS V14.01,2013-02-19 08:13:00,
2013-02-19 03:14:00,19.5,-7.6,30.00,NNW,339,12.0,16.0,29,0.00,,CLR,0.00,0.00,VWS V14.01,2013-02-19 08:14:00,
2013-02-19 03:16:00,19.5,-7.6,30.01,NNW,342,11.0,16.0,29,0.00,,CLR,0.00,0.00,VWS V14.01,2013-02-19 08:16:00,
2013-02-19 03:18:00,19.5,-7.6,30.01,NNW,333,4.0,16.0,29,0.00,,CLR,0.00,0.00,VWS V14.01,2013-02-19 08:18:00,
2013-02-19 03:19:00,19.5,-6.9,30.01,NNW,337,8.0,16.0,30,0.00,,CLR,0.00,0.00,VWS V14.01,2013-02-19 08:19:00,
2013-02-19 03:20:00,19.5,-6.9,30.01,NNW,346,4.0,16.0,30,0.00,,CLR,0.00,0.00,VWS V14.01,2013-02-19 08:20:00,
2013-02-19 03:22:00,19.5,-7.6,30.01,NNW,347,7.0,16.0,29,0.00,,CLR,0.00,0.00,VWS V14.01,2013-02-19 08:22:00,
2013-02-19 03:23:00,19.5,-8.3,30.01,NNW,342,10.0,16.0,28,0.00,,CLR,0.00,0.00,VWS V14.01,2013-02-19 08:23:00,
2013-02-19 03:25:00,19.5,-7.6,30.01,NNW,347,5.0,16.0,29,0.00,,CLR,0.00,0.00,VWS V14.01,2013-02-19 08:25:00,
2013-02-19 03:27:00,19.5,-6.2,30.01,NNW,337,10.0,16.0,31,0.00,,CLR,0.00,0.00,VWS V14.01,2013-02-19 08:27:00,
2013-02-19 03:28:00,19.5,-7.6,30.01,NNW,339,6.0,16.0,29,0.00,,CLR,0.00,0.00,VWS V14.01,2013-02-19 08:28:00,
2013-02-19 03:30:00,19.7,-8.1,30.01,NNW,333,6.0,18.0,28,0.00,,CLR,0.00,0.00,VWS V14.01,2013-02-19 08:30:00,
2013-02-19 03:32:00,19.7,-6.7,30.01,NW,320,11.0,18.0,30,0.00,,CLR,0.00,0.00,VWS V14.01,2013-02-19 08:32:00,
2013-02-19 03:33:00,19.7,-7.4,30.01,NNW,346,10.0,18.0,29,0.00,,CLR,0.00,0.00,VWS V14.01,2013-02-19 08:33:00,
2013-02-19 03:35:00,19.7,-7.4,30.01,NNW,343,11.0,18.0,29,0.00,,CLR,0.00,0.00,VWS V14.01,2013-02-19 08:35:00,
2013-02-19 03:36:00,19.7,-7.4,30.01,NNW,344,6.0,18.0,29,0.00,,CLR,0.00,0.00,VWS V14.01,2013-02-19 08:36:00,
2013-02-19 03:38:00,19.7,-8.1,30.01,NNW,339,10.0,18.0,28,0.00,,CLR,0.00,0.00,VWS V14.01,2013-02-19 08:38:00,
2013-02-19 03:41:00,19.7,-6.7,30.01,NNW,339,6.0,18.0,30,0.00,,CLR,0.00,0.00,VWS V14.01,2013-02-19 08:41:00,
2013-02-19 03:42:00,19.7,-6.7,30.01,NNW,342,12.0,18.0,30,0.00,,CLR,0.00,0.00,VWS V14.01,2013-02-19 08:42:00,
2013-02-19 03:43:00,19.7,-6.7,30.01,NNW,342,16.0,18.0,30,0.00,,CLR,0.00,0.00,VWS V14.01,2013-02-19 08:43:00,
2013-02-19 03:44:00,19.9,-6.5,30.01,NNW,342,11.0,18.0,30,0.00,,CLR,0.00,0.00,VWS V14.01,2013-02-19 08:44:00,
2013-02-19 03:47:00,19.9,-7.2,30.01,NNW,339,6.0,18.0,29,0.00,,CLR,0.00,0.00,VWS V14.01,2013-02-19 08:47:00,
2013-02-19 03:48:00,19.9,-6.5,30.01,NNW,342,10.0,18.0,30,0.00,,CLR,0.00,0.00,VWS V14.01,2013-02-19 08:48:00,
2013-02-19 03:49:00,19.9,-7.2,30.01,NNW,335,6.0,18.0,29,0.00,,CLR,0.00,0.00,VWS V14.01,2013-02-19 08:49:00,
2013-02-19 03:52:00,19.9,-6.5,30.01,NNW,343,0.0,18.0,30,0.00,,CLR,0.00,0.00,VWS V14.01,2013-02-19 08:52:00,
2013-02-19 03:53:00,19.9,-6.5,30.01,NNW,340,9.0,18.0,30,0.00,,CLR,0.00,0.00,VWS V14.01,2013-02-19 08:53:00,
2013-02-19 03:54:00,19.9,-7.2,30.01,NNW,332,8.0,18.0,29,0.00,,CLR,0.00,0.00,VWS V14.01,2013-02-19 08:54:00,
2013-02-19 03:57:00,19.9,-6.5,30.01,NNW,343,9.0,18.0,30,0.00,,CLR,0.00,0.00,VWS V14.01,2013-02-19 08:57:00,
2013-02-19 03:58:00,19.9,-6.5,30.01,North,353,7.0,18.0,30,0.00,,CLR,0.00,0.00,VWS V14.01,2013-02-19 08:58:00,
2013-02-19 03:59:00,19.9,-6.5,30.01,NNW,335,9.0,18.0,30,0.00,,CLR,0.00,0.00,VWS V14.01,2013-02-19 08:59:00,
2013-02-19 04:00:00,19.5,-4.3,30.01,NNW,335,5.0,16.0,34,0.00,,FEW080,0.00,0.00,VWS V14.01,2013-02-19 09:00:00,
2013-02-19 04:02:00,19.9,-6.5,30.01,NNW,329,7.0,12.0,30,0.00,,FEW070,0.00,0.00,VWS V14.01,2013-02-19 09:02:00,
2013-02-19 04:03:00,19.9,-6.5,30.01,NNW,346,10.0,14.0,30,0.00,,FEW070,0.00,0.00,VWS V14.01,2013-02-19 09:03:00,
2013-02-19 04:04:00,19.9,-7.2,30.01,NNW,344,10.0,14.0,29,0.00,,FEW070,0.00,0.00,VWS V14.01,2013-02-19 09:04:00,
2013-02-19 04:05:00,19.9,-6.5,30.01,NNW,337,3.0,14.0,30,0.00,,FEW070,0.00,0.00,VWS V14.01,2013-02-19 09:05:00,
2013-02-19 04:07:00,19.9,-6.5,30.01,NNW,346,13.0,14.0,30,0.00,,FEW070,0.00,0.00,VWS V14.01,2013-02-19 09:07:00,
2013-02-19 04:09:00,19.9,-7.9,30.01,NNW,333,8.0,14.0,28,0.00,,FEW070,0.00,0.00,VWS V14.01,2013-02-19 09:09:00,
2013-02-19 04:10:00,19.9,-6.5,30.01,NNW,335,10.0,14.0,30,0.00,,FEW070,0.00,0.00,VWS V14.01,2013-02-19 09:10:00,
2013-02-19 04:13:00,19.9,-5.8,30.01,NNW,344,12.0,20.0,31,0.00,,FEW070,0.00,0.00,VWS V14.01,2013-02-19 09:13:00,
2013-02-19 04:14:00,19.9,-5.8,30.01,NNW,344,10.0,20.0,31,0.00,,FEW070,0.00,0.00,VWS V14.01,2013-02-19 09:14:00,
2013-02-19 04:16:00,19.9,-7.2,30.01,NNW,342,10.0,20.0,29,0.00,,FEW070,0.00,0.00,VWS V14.01,2013-02-19 09:16:00,
2013-02-19 04:18:00,19.9,-5.8,30.01,NNW,344,8.0,20.0,31,0.00,,FEW070,0.00,0.00,VWS V14.01,2013-02-19 09:18:00,
2013-02-19 04:19:00,19.9,-6.5,30.01,NNW,343,12.0,20.0,30,0.00,,FEW070,0.00,0.00,VWS V14.01,2013-02-19 09:19:00,
2013-02-19 04:21:00,19.9,-5.8,30.01,NNW,339,7.0,20.0,31,0.00,,FEW070,0.00,0.00,VWS V14.01,2013-02-19 09:21:00,
2013-02-19 04:23:00,19.9,-5.8,30.01,NNW,337,8.0,20.0,31,0.00,,FEW070,0.00,0.00,VWS V14.01,2013-02-19 09:23:00,
2013-02-19 04:24:00,19.9,-5.8,30.01,NNW,343,7.0,20.0,31,0.00,,FEW070,0.00,0.00,VWS V14.01,2013-02-19 09:24:00,
2013-02-19 04:26:00,19.9,-5.8,30.01,NNW,344,7.0,20.0,31,0.00,,FEW070,0.00,0.00,VWS V14.01,2013-02-19 09:26:00,
2013-02-19 04:28:00,19.7,-6.0,30.01,NNW,343,8.0,20.0,31,0.00,,FEW070,0.00,0.00,VWS V14.01,2013-02-19 09:28:00,
2013-02-19 04:30:00,19.7,-6.7,30.01,NNW,344,12.0,20.0,30,0.00,,FEW070,0.00,0.00,VWS V14.01,2013-02-19 09:30:00,
2013-02-19 04:31:00,19.7,-7.4,30.01,NNW,343,2.0,20.0,29,0.00,,FEW070,0.00,0.00,VWS V14.01,2013-02-19 09:31:00,
2013-02-19 04:33:00,19.7,-8.1,30.01,NNW,343,0.0,11.0,28,0.00,,FEW070,0.00,0.00,VWS V14.01,2013-02-19 09:33:00,
2013-02-19 04:35:00,19.7,-8.1,30.01,NNW,343,7.0,12.0,28,0.00,,FEW070,0.00,0.00,VWS V14.01,2013-02-19 09:35:00,
2013-02-19 04:36:00,19.7,-8.1,30.01,NNW,340,5.0,12.0,28,0.00,,FEW070,0.00,0.00,VWS V14.01,2013-02-19 09:36:00,
2013-02-19 04:38:00,19.7,-7.4,30.01,North,352,7.0,14.0,29,0.00,,FEW070,0.00,0.00,VWS V14.01,2013-02-19 09:38:00,
2013-02-19 04:40:00,19.7,-8.1,30.01,NNW,343,4.0,14.0,28,0.00,,FEW070,0.00,0.00,VWS V14.01,2013-02-19 09:40:00,
2013-02-19 04:41:00,19.7,-6.7,30.01,NNW,343,9.0,14.0,30,0.00,,FEW070,0.00,0.00,VWS V14.01,2013-02-19 09:41:00,
2013-02-19 04:42:00,19.7,-6.7,30.01,NNW,343,6.0,14.0,30,0.00,,FEW070,0.00,0.00,VWS V14.01,2013-02-19 09:42:00,
2013-02-19 04:43:00,19.7,-7.4,30.01,NNW,344,8.0,14.0,29,0.00,,FEW070,0.00,0.00,VWS V14.01,2013-02-19 09:43:00,
2013-02-19 04:45:00,19.7,-8.1,30.01,NNW,343,6.0,16.0,28,0.00,,FEW070,0.00,0.00,VWS V14.01,2013-02-19 09:45:00,
2013-02-19 04:47:00,19.7,-6.7,30.01,NNW,343,5.0,16.0,30,0.00,,FEW070,0.00,0.00,VWS V14.01,2013-02-19 09:47:00,
2013-02-19 04:49:00,19.7,-7.4,30.01,NNW,344,12.0,16.0,29,0.00,,FEW070,0.00,0.00,VWS V14.01,2013-02-19 09:49:00,
2013-02-19 04:51:00,19.7,-7.4,30.01,NNW,337,10.0,16.0,29,0.00,,FEW070,0.00,0.00,VWS V14.01,2013-02-19 09:51:00,
2013-02-19 04:52:00,19.7,-7.4,30.01,NNW,333,8.0,16.0,29,0.00,,FEW070,0.00,0.00,VWS V14.01,2013-02-19 09:52:00,
2013-02-19 04:54:00,19.7,-6.0,30.01,East,97,6.0,16.0,31,0.00,,FEW070,0.00,0.00,VWS V14.01,2013-02-19 09:54:00,
2013-02-19 04:56:00,19.5,-6.9,30.01,NNW,330,0.0,16.0,30,0.00,,FEW070,0.00,0.00,VWS V14.01,2013-02-19 09:56:00,
2013-02-19 04:57:00,19.5,-6.2,30.01,NNW,336,1.0,16.0,31,0.00,,FEW070,0.00,0.00,VWS V14.01,2013-02-19 09:57:00,
2013-02-19 04:58:00,19.5,-6.2,30.01,NW,325,0.0,16.0,31,0.00,,FEW070,0.00,0.00,VWS V14.01,2013-02-19 09:58:00,
2013-02-19 04:59:00,19.5,-5.6,30.01,NNW,332,3.0,16.0,32,0.00,,FEW070,0.00,0.00,VWS V14.01,2013-02-19 09:59:00,
2013-02-19 05:00:00,19.2,-6.5,30.00,NNW,329,5.0,12.0,31,0.00,,FEW080,0.00,0.00,VWS V14.01,2013-02-19 10:00:00,
2013-02-19 05:01:00,19.5,-4.3,30.01,NNW,333,6.0,16.0,34,0.00,,FEW070,0.00,0.00,VWS V14.01,2013-02-19 10:01:00,
2013-02-19 05:02:00,19.5,-4.9,30.01,East,86,1.0,5.0,33,0.00,,FEW070,0.00,0.00,VWS V14.01,2013-02-19 10:02:00,
2013-02-19 05:03:00,19.5,-4.9,30.01,NNW,343,7.0,10.0,33,0.00,,FEW070,0.00,0.00,VWS V14.01,2013-02-19 10:03:00,
2013-02-19 05:04:00,19.5,-5.6,30.01,North,353,10.0,10.0,32,0.00,,FEW070,0.00,0.00,VWS V14.01,2013-02-19 10:04:00,
2013-02-19 05:06:00,19.4,-6.3,30.01,NNW,339,5.0,11.0,31,0.00,,FEW070,0.00,0.00,VWS V14.01,2013-02-19 10:06:00,
2013-02-19 05:08:00,19.4,-5.0,30.01,NNW,337,5.0,12.0,33,0.00,,FEW070,0.00,0.00,VWS V14.01,2013-02-19 10:08:00,
2013-02-19 05:09:00,19.4,-5.6,30.01,NNW,337,3.0,12.0,32,0.00,,FEW070,0.00,0.00,VWS V14.01,2013-02-19 10:09:00,
2013-02-19 05:12:00,19.4,-6.3,30.01,NNW,337,4.0,12.0,31,0.00,,FEW070,0.00,0.00,VWS V14.01,2013-02-19 10:12:00,
2013-02-19 05:13:00,19.4,-7.0,30.01,NNW,343,1.0,12.0,30,0.00,,FEW070,0.00,0.00,VWS V14.01,2013-02-19 10:13:00,
2013-02-19 05:14:00,19.4,-7.0,30.01,NNW,337,3.0,12.0,30,0.00,,FEW070,0.00,0.00,VWS V14.01,2013-02-19 10:14:00,
2013-02-19 05:17:00,19.4,-6.3,30.01,NNW,342,8.0,12.0,31,0.00,,FEW070,0.00,0.00,VWS V14.01,2013-02-19 10:17:00,
2013-02-19 05:18:00,19.4,-7.0,30.01,NNW,337,5.0,12.0,30,0.00,,FEW070,0.00,0.00,VWS V14.01,2013-02-19 10:18:00,
2013-02-19 05:19:00,19.4,-7.0,30.01,North,356,8.0,12.0,30,0.00,,FEW070,0.00,0.00,VWS V14.01,2013-02-19 10:19:00,
2013-02-19 05:23:00,19.4,-6.3,30.01,NNW,346,13.0,13.0,31,0.00,,FEW070,0.00,0.00,VWS V14.01,2013-02-19 10:23:00,
2013-02-19 05:25:00,19.4,-7.0,30.01,North,352,3.0,13.0,30,0.00,,FEW070,0.00,0.00,VWS V14.01,2013-02-19 10:25:00,
2013-02-19 05:28:00,19.4,-7.7,30.01,North,352,2.0,13.0,29,0.00,,FEW070,0.00,0.00,VWS V14.01,2013-02-19 10:28:00,
2013-02-19 05:30:00,19.4,-7.0,30.01,North,350,8.0,13.0,30,0.00,,FEW070,0.00,0.00,VWS V14.01,2013-02-19 10:30:00,
2013-02-19 05:33:00,19.2,-7.8,30.01,NNW,329,7.0,10.0,29,0.00,,FEW070,0.00,0.00,VWS V14.01,2013-02-19 10:33:00,
2013-02-19 05:35:00,19.2,-7.8,30.01,NNW,337,1.0,12.0,29,0.00,,FEW070,0.00,0.00,VWS V14.01,2013-02-19 10:35:00,
2013-02-19 05:38:00,19.2,-7.1,30.01,NNW,339,5.0,12.0,30,0.00,,FEW070,0.00,0.00,VWS V14.01,2013-02-19 10:38:00,
2013-02-19 05:39:00,19.2,-7.1,30.01,NNW,343,6.0,12.0,30,0.00,,FEW070,0.00,0.00,VWS V14.01,2013-02-19 10:39:00,
2013-02-19 05:40:00,19.2,-8.6,30.01,NNW,337,5.0,12.0,28,0.00,,FEW070,0.00,0.00,VWS V14.01,2013-02-19 10:40:00,
2013-02-19 05:44:00,19.2,-7.8,30.01,NNW,335,0.0,12.0,29,0.00,,FEW070,0.00,0.00,VWS V14.01,2013-02-19 10:44:00,
2013-02-19 05:45:00,19.2,-7.8,30.01,NNW,344,5.0,12.0,29,0.00,,FEW070,0.00,0.00,VWS V14.01,2013-02-19 10:45:00,
2013-02-19 05:49:00,19.2,-5.8,30.01,NNW,343,2.0,12.0,32,0.00,,FEW070,0.00,0.00,VWS V14.01,2013-02-19 10:49:00,
2013-02-19 05:50:00,19.2,-7.1,30.01,NNW,346,11.0,12.0,30,0.00,,FEW070,0.00,0.00,VWS V14.01,2013-02-19 10:50:00,
2013-02-19 05:54:00,19.2,-7.8,30.01,NNW,347,2.0,12.0,29,0.00,,FEW070,0.00,0.00,VWS V14.01,2013-02-19 10:54:00,
2013-02-19 05:55:00,19.2,-7.8,30.01,NNW,336,0.0,12.0,29,0.00,,FEW070,0.00,0.00,VWS V14.01,2013-02-19 10:55:00,
2013-02-19 05:56:00,19.2,-7.8,30.01,NNW,343,3.0,12.0,29,0.00,,FEW070,0.00,0.00,VWS V14.01,2013-02-19 10:56:00,
2013-02-19 05:59:00,19.2,-7.1,30.01,NNW,340,0.0,12.0,30,0.00,,FEW070,0.00,0.00,VWS V14.01,2013-02-19 10:59:00,
2013-02-19 06:00:00,19.4,-7.0,29.99,NNW,347,3.0,7.0,30,0.00,,FEW080,0.00,30.00,VWS V14.01,2013-02-19 11:00:00,
2013-02-19 06:01:00,19.2,-6.5,30.00,NNW,344,0.0,12.0,31,0.00,,FEW070,0.00,0.00,VWS V14.01,2013-02-19 11:01:00,
2013-02-19 06:04:00,19.2,-7.1,30.00,NNW,333,3.0,7.0,30,0.00,,CLR,0.00,0.00,VWS V14.01,2013-02-19 11:04:00,
2013-02-19 06:05:00,19.2,-5.8,30.00,NNW,329,2.0,7.0,32,0.00,,CLR,0.00,0.00,VWS V14.01,2013-02-19 11:05:00,
2013-02-19 06:06:00,19.2,-6.5,30.00,NNW,339,0.0,7.0,31,0.00,,CLR,0.00,0.00,VWS V14.01,2013-02-19 11:06:00,
2013-02-19 06:09:00,19.2,-5.8,30.00,NNW,333,2.0,7.0,32,0.00,,CLR,0.00,0.00,VWS V14.01,2013-02-19 11:09:00,
2013-02-19 06:10:00,19.2,-6.5,30.00,NNW,336,0.0,7.0,31,0.00,,CLR,0.00,0.00,VWS V14.01,2013-02-19 11:10:00,
2013-02-19 06:11:00,19.2,-6.5,30.00,NNW,336,2.0,7.0,31,0.00,,CLR,0.00,0.00,VWS V14.01,2013-02-19 11:11:00,
2013-02-19 06:14:00,19.2,-7.1,30.00,NNW,347,3.0,7.0,30,0.00,,CLR,0.00,0.00,VWS V14.01,2013-02-19 11:14:00,
2013-02-19 06:16:00,19.2,-7.8,30.00,NNW,343,5.0,7.0,29,0.00,,CLR,0.00,0.00,VWS V14.01,2013-02-19 11:16:00,
2013-02-19 06:20:00,19.2,-6.5,30.00,NNW,346,2.0,8.0,31,0.00,,CLR,0.00,0.00,VWS V14.01,2013-02-19 11:20:00,
2013-02-19 06:21:00,19.2,-6.5,30.00,NNW,346,2.0,8.0,31,0.00,,CLR,0.00,0.00,VWS V14.01,2013-02-19 11:21:00,
2013-02-19 06:22:00,19.2,-6.5,30.00,NNW,346,0.0,8.0,31,0.00,,CLR,0.00,0.00,VWS V14.01,2013-02-19 11:22:00,
2013-02-19 06:25:00,19.2,-7.8,30.00,NNW,342,0.0,8.0,29,0.00,,CLR,0.00,0.00,VWS V14.01,2013-02-19 11:25:00,
2013-02-19 06:26:00,19.2,-7.8,30.00,NNW,342,0.0,8.0,29,0.00,,CLR,0.00,0.00,VWS V14.01,2013-02-19 11:26:00,
2013-02-19 06:28:00,19.1,-5.9,30.00,NNW,336,0.0,8.0,32,0.00,,CLR,0.00,0.00,VWS V14.01,2013-02-19 11:28:00,
2013-02-19 06:30:00,19.1,-6.6,30.00,NNW,346,5.0,8.0,31,0.00,,CLR,0.00,0.00,VWS V14.01,2013-02-19 11:30:00,
2013-02-19 06:31:00,19.1,-7.2,30.00,NNW,344,1.0,8.0,30,0.00,,CLR,0.00,0.00,VWS V14.01,2013-02-19 11:31:00,
2013-02-19 06:33:00,19.1,-7.2,30.00,NNW,346,3.0,5.0,30,0.00,,CLR,0.00,0.00,VWS V14.01,2013-02-19 11:33:00,
2013-02-19 06:35:00,19.1,-8.6,30.00,North,349,3.0,5.0,28,0.00,,CLR,0.00,0.00,VWS V14.01,2013-02-19 11:35:00,
2013-02-19 06:36:00,19.1,-7.9,30.00,North,349,4.0,5.0,29,0.00,,CLR,0.00,0.00,VWS V14.01,2013-02-19 11:36:00,
2013-02-19 06:37:00,19.1,-7.9,30.00,NNW,347,0.0,5.0,29,0.00,,CLR,0.00,0.00,VWS V14.01,2013-02-19 11:37:00,
2013-02-19 06:39:00,19.1,-7.9,30.00,NNW,347,2.0,5.0,29,0.00,,CLR,0.00,0.00,VWS V14.01,2013-02-19 11:39:00,
2013-02-19 06:40:00,19.1,-7.9,30.00,NNW,347,2.0,5.0,29,0.00,,CLR,0.00,0.00,VWS V14.01,2013-02-19 11:40:00,
2013-02-19 06:42:00,19.1,-7.9,30.00,NNW,344,1.0,5.0,29,0.00,,CLR,0.00,0.00,VWS V14.01,2013-02-19 11:42:00,
2013-02-19 06:43:00,19.1,-8.6,30.00,NNW,346,1.0,5.0,28,0.00,,CLR,0.00,5.00,VWS V14.01,2013-02-19 11:43:00,
2013-02-19 06:44:00,19.2,-8.6,30.00,NNW,344,1.0,5.0,28,0.00,,CLR,0.00,5.00,VWS V14.01,2013-02-19 11:44:00,
2013-02-19 06:46:00,19.2,-7.8,29.99,NNW,343,0.0,5.0,29,0.00,,CLR,0.00,5.00,VWS V14.01,2013-02-19 11:46:00,
2013-02-19 06:47:00,19.2,-8.6,29.99,NNW,343,1.0,5.0,28,0.00,,CLR,0.00,11.00,VWS V14.01,2013-02-19 11:47:00,
2013-02-19 06:48:00,19.2,-6.5,29.99,NNW,343,5.0,5.0,31,0.00,,CLR,0.00,11.00,VWS V14.01,2013-02-19 11:48:00,
2013-02-19 06:49:00,19.2,-7.1,29.99,NNW,343,3.0,5.0,30,0.00,,CLR,0.00,11.00,VWS V14.01,2013-02-19 11:49:00,
2013-02-19 06:51:00,19.2,-7.1,29.99,NNW,346,7.0,7.0,30,0.00,,CLR,0.00,19.00,VWS V14.01,2013-02-19 11:51:00,
2013-02-19 06:52:00,19.2,-7.1,29.99,NNW,344,3.0,7.0,30,0.00,,CLR,0.00,19.00,VWS V14.01,2013-02-19 11:52:00,
2013-02-19 06:54:00,19.2,-7.1,29.99,NNW,343,5.0,7.0,30,0.00,,CLR,0.00,19.00,VWS V14.01,2013-02-19 11:54:00,
2013-02-19 06:57:00,19.2,-6.5,29.99,NNW,346,5.0,7.0,31,0.00,,CLR,0.00,26.00,VWS V14.01,2013-02-19 11:57:00,
2013-02-19 06:59:00,19.4,-7.0,29.99,NNW,336,5.0,7.0,30,0.00,,CLR,0.00,30.00,VWS V14.01,2013-02-19 11:59:00,
2013-02-19 07:00:00,19.4,-7.7,29.99,NNW,346,3.0,7.0,29,0.00,,CLR,0.00,30.00,VWS V14.01,2013-02-19 12:00:00,
2013-02-19 07:02:00,19.4,-7.0,29.99,NNW,346,3.0,3.0,30,0.00,,CLR,0.00,30.00,VWS V14.01,2013-02-19 12:02:00,
2013-02-19 07:04:00,19.4,-7.0,29.99,NNW,343,4.0,7.0,30,0.00,,CLR,0.00,37.00,VWS V14.01,2013-02-19 12:04:00,
2013-02-19 07:06:00,19.4,-7.0,29.99,NNW,342,6.0,8.0,30,0.00,,CLR,0.00,37.00,VWS V14.01,2013-02-19 12:06:00,
2013-02-19 07:07:00,19.5,-6.9,29.99,NNW,339,0.0,8.0,30,0.00,,CLR,0.00,40.00,VWS V14.01,2013-02-19 12:07:00,
2013-02-19 07:10:00,19.5,-8.3,29.99,NNW,336,0.0,8.0,28,0.00,,CLR,0.00,40.00,VWS V14.01,2013-02-19 12:10:00,
2013-02-19 07:11:00,19.5,-8.3,29.99,NNW,337,3.0,8.0,28,0.00,,CLR,0.00,40.00,VWS V14.01,2013-02-19 12:11:00,
2013-02-19 07:13:00,19.7,-8.1,29.99,NNW,337,3.0,8.0,28,0.00,,CLR,0.00,44.00,VWS V14.01,2013-02-19 12:13:00,
2013-02-19 07:15:00,19.7,-8.9,29.99,NNW,343,2.0,8.0,27,0.00,,CLR,0.00,44.00,VWS V14.01,2013-02-19 12:15:00,
2013-02-19 07:16:00,19.7,-8.1,30.00,NNW,343,0.0,8.0,28,0.00,,CLR,0.00,40.00,VWS V14.01,2013-02-19 12:16:00,
2013-02-19 07:18:00,19.9,-7.9,30.00,NNW,342,0.0,8.0,28,0.00,,CLR,0.00,40.00,VWS V14.01,2013-02-19 12:18:00,
2013-02-19 07:21:00,20.0,-7.8,30.00,NNW,342,5.0,8.0,28,0.00,,CLR,0.00,33.00,VWS V14.01,2013-02-19 12:21:00,
2013-02-19 07:23:00,20.0,-7.8,30.00,NNW,337,3.0,8.0,28,0.00,,CLR,0.00,33.00,VWS V14.01,2013-02-19 12:23:00,
2013-02-19 07:24:00,20.0,-7.8,30.00,NNW,337,1.0,8.0,28,0.00,,CLR,0.00,33.00,VWS V14.01,2013-02-19 12:24:00,
2013-02-19 07:26:00,20.0,-7.1,30.00,NNW,340,0.0,8.0,29,0.00,,CLR,0.00,28.00,VWS V14.01,2013-02-19 12:26:00,
2013-02-19 07:27:00,20.2,-6.3,30.00,NNW,337,0.0,8.0,30,0.00,,CLR,0.00,28.00,VWS V14.01,2013-02-19 12:27:00,
2013-02-19 07:28:00,20.2,-7.0,30.00,NNW,337,0.0,8.0,29,0.00,,CLR,0.00,28.00,VWS V14.01,2013-02-19 12:28:00,
2013-02-19 07:29:00,20.2,-7.7,30.00,NNW,337,0.0,8.0,28,0.00,,CLR,0.00,28.00,VWS V14.01,2013-02-19 12:29:00,
2013-02-19 07:30:00,23.0,-6.0,29.98,NNW,340,0.0,2.0,27,0.00,,FEW080,0.00,209.00,VWS V14.01,2013-02-19 12:30:00,
2013-02-19 07:31:00,20.2,-7.7,29.99,NNW,337,0.0,8.0,28,0.00,,CLR,0.00,28.00,VWS V14.01,2013-02-19 12:31:00,
2013-02-19 07:32:00,20.2,-7.7,29.99,NNW,336,0.0,0.0,28,0.00,,CLR,0.00,28.00,VWS V14.01,2013-02-19 12:32:00,
2013-02-19 07:33:00,20.2,-7.7,29.99,NNW,336,0.0,0.0,28,0.00,,CLR,0.00,33.00,VWS V14.01,2013-02-19 12:33:00,
2013-02-19 07:34:00,20.2,-8.4,29.99,NNW,339,0.0,0.0,27,0.00,,CLR,0.00,33.00,VWS V14.01,2013-02-19 12:34:00,
2013-02-19 07:36:00,20.3,-7.6,29.99,NNW,335,0.0,0.0,28,0.00,,CLR,0.00,33.00,VWS V14.01,2013-02-19 12:36:00,
2013-02-19 07:37:00,20.3,-4.8,29.99,North,350,0.0,0.0,32,0.00,,CLR,0.00,48.00,VWS V14.01,2013-02-19 12:37:00,
2013-02-19 07:39:00,20.3,-6.2,29.99,North,349,0.0,0.0,30,0.00,,CLR,0.00,48.00,VWS V14.01,2013-02-19 12:39:00,
2013-02-19 07:40:00,20.3,-4.8,29.99,NNW,344,0.0,0.0,32,0.00,,CLR,0.00,48.00,VWS V14.01,2013-02-19 12:40:00,
2013-02-19 07:42:00,20.5,-4.7,29.99,North,350,0.0,0.0,32,0.00,,CLR,0.00,51.00,VWS V14.01,2013-02-19 12:42:00,
2013-02-19 07:44:00,20.5,-6.0,29.99,North,352,0.0,0.0,30,0.00,,CLR,0.00,51.00,VWS V14.01,2013-02-19 12:44:00,
2013-02-19 07:45:00,20.5,-7.4,29.99,North,353,0.0,0.0,28,0.00,,CLR,0.00,46.00,VWS V14.01,2013-02-19 12:45:00,
2013-02-19 07:47:00,20.5,-8.2,29.98,North,353,0.0,0.0,27,0.00,,CLR,0.00,46.00,VWS V14.01,2013-02-19 12:47:00,
2013-02-19 07:48:00,20.5,-8.2,29.98,North,350,0.0,0.0,27,0.00,,CLR,0.00,46.00,VWS V14.01,2013-02-19 12:48:00,
2013-02-19 07:49:00,20.6,-7.3,29.98,NNW,344,0.0,0.0,28,0.00,,CLR,0.00,42.00,VWS V14.01,2013-02-19 12:49:00,
2013-02-19 07:50:00,20.6,-5.2,29.98,NNW,344,0.0,0.0,31,0.00,,CLR,0.00,42.00,VWS V14.01,2013-02-19 12:50:00,
2013-02-19 07:52:00,20.6,-4.6,29.98,NNW,344,0.0,0.0,32,0.00,,CLR,0.00,42.00,VWS V14.01,2013-02-19 12:52:00,
2013-02-19 07:53:00,20.6,-3.9,29.98,NNW,344,0.0,0.0,33,0.00,,CLR,0.00,42.00,VWS V14.01,2013-02-19 12:53:00,
2013-02-19 07:54:00,20.6,-2.7,29.98,NNW,340,0.0,0.0,35,0.00,,CLR,0.00,44.00,VWS V14.01,2013-02-19 12:54:00,
2013-02-19 07:56:00,20.8,-4.4,29.98,NNW,340,0.0,0.0,32,0.00,,CLR,0.00,44.00,VWS V14.01,2013-02-19 12:56:00,
2013-02-19 07:57:00,20.8,-3.8,29.98,NNW,339,0.0,0.0,33,0.00,,CLR,0.00,58.00,VWS V14.01,2013-02-19 12:57:00,
2013-02-19 07:58:00,20.8,-2.5,29.98,NNW,330,0.0,0.0,35,0.00,,CLR,0.00,65.00,VWS V14.01,2013-02-19 12:58:00,
2013-02-19 07:59:00,20.8,-2.5,29.98,NNW,328,0.0,0.0,35,0.00,,CLR,0.00,70.00,VWS V14.01,2013-02-19 12:59:00,
2013-02-19 08:00:00,26.7,-4.4,29.98,NW,308,0.0,4.0,25,0.00,,FEW080,0.00,306.00,VWS V14.01,2013-02-19 13:00:00,
2013-02-19 08:01:00,21.0,-4.2,29.99,NW,326,0.0,0.0,32,0.00,,CLR,0.00,84.00,VWS V14.01,2013-02-19 13:01:00,
2013-02-19 08:03:00,21.0,-4.2,29.99,NNW,337,0.0,0.0,32,0.00,,CLR,0.00,97.00,VWS V14.01,2013-02-19 13:03:00,
2013-02-19 08:04:00,21.0,-3.6,29.99,NNW,328,0.0,0.0,33,0.00,,CLR,0.00,88.00,VWS V14.01,2013-02-19 13:04:00,
2013-02-19 08:06:00,21.1,-2.9,29.99,NNW,336,0.0,0.0,34,0.00,,CLR,0.00,84.00,VWS V14.01,2013-02-19 13:06:00,
2013-02-19 08:08:00,21.1,-1.7,29.99,NNW,336,0.0,0.0,36,0.00,,CLR,0.00,79.00,VWS V14.01,2013-02-19 13:08:00,
2013-02-19 08:09:00,21.1,-1.1,29.99,NNW,335,0.0,0.0,37,0.00,,CLR,0.00,79.00,VWS V14.01,2013-02-19 13:09:00,
2013-02-19 08:10:00,21.1,-1.7,29.99,NNW,335,0.0,0.0,36,0.00,,CLR,0.00,79.00,VWS V14.01,2013-02-19 13:10:00,
2013-02-19 08:12:00,21.1,-3.5,29.99,NNW,332,0.0,0.0,33,0.00,,CLR,0.00,74.00,VWS V14.01,2013-02-19 13:12:00,
2013-02-19 08:13:00,21.3,-4.6,29.99,NNW,330,0.0,0.0,31,0.00,,CLR,0.00,74.00,VWS V14.01,2013-02-19 13:13:00,
2013-02-19 08:14:00,21.3,-4.6,29.99,NNW,330,0.0,0.0,31,0.00,,CLR,0.00,74.00,VWS V14.01,2013-02-19 13:14:00,
2013-02-19 08:15:00,21.3,-6.0,29.99,NNW,330,0.0,0.0,29,0.00,,CLR,0.00,77.00,VWS V14.01,2013-02-19 13:15:00,
2013-02-19 08:17:00,21.4,-5.9,29.98,NNW,332,0.0,0.0,29,0.00,,CLR,0.00,104.00,VWS V14.01,2013-02-19 13:17:00,
2013-02-19 08:19:00,21.4,-5.9,29.98,NNW,332,0.0,0.0,29,0.00,,CLR,0.00,125.00,VWS V14.01,2013-02-19 13:19:00,
2013-02-19 08:20:00,21.6,-5.7,29.98,NNW,329,0.0,0.0,29,0.00,,CLR,0.00,146.00,VWS V14.01,2013-02-19 13:20:00,
2013-02-19 08:22:00,21.8,-5.6,29.98,NNW,332,0.0,0.0,29,0.00,,CLR,0.00,183.00,VWS V14.01,2013-02-19 13:22:00,
2013-02-19 08:24:00,21.9,-4.8,29.98,NW,326,0.0,0.0,30,0.00,,CLR,0.00,250.00,VWS V14.01,2013-02-19 13:24:00,
2013-02-19 08:26:00,22.1,-5.3,29.98,NNW,336,0.0,0.0,29,0.00,,CLR,0.00,260.00,VWS V14.01,2013-02-19 13:26:00,
2013-02-19 08:27:00,22.2,-5.2,29.98,NNW,336,1.0,2.0,29,0.00,,CLR,0.00,253.00,VWS V14.01,2013-02-19 13:27:00,
2013-02-19 08:29:00,22.5,-5.7,29.98,NNW,336,0.0,2.0,28,0.00,,CLR,0.00,236.00,VWS V14.01,2013-02-19 13:29:00,
2013-02-19 08:30:00,22.9,-6.1,29.98,NNW,340,0.0,2.0,27,0.00,,CLR,0.00,230.00,VWS V14.01,2013-02-19 13:30:00,
2013-02-19 08:31:00,22.9,-6.1,29.98,NNW,342,0.0,2.0,27,0.00,,CLR,0.00,220.00,VWS V14.01,2013-02-19 13:31:00,
2013-02-19 08:32:00,23.0,-4.5,29.98,NNW,342,0.0,0.0,29,0.00,,CLR,0.00,209.00,VWS V14.01,2013-02-19 13:32:00,
2013-02-19 08:34:00,23.5,-3.4,29.98,NNW,339,0.0,0.0,30,0.00,,CLR,0.00,253.00,VWS V14.01,2013-02-19 13:34:00,
2013-02-19 08:35:00,23.6,-4.7,29.98,NNW,340,0.0,0.0,28,0.00,,CLR,0.00,225.00,VWS V14.01,2013-02-19 13:35:00,
2013-02-19 08:37:00,23.8,-4.5,29.98,NNW,339,0.0,0.0,28,0.00,,CLR,0.00,232.00,VWS V14.01,2013-02-19 13:37:00,
2013-02-19 08:40:00,24.2,-2.1,29.98,NNW,337,0.0,0.0,31,0.00,,CLR,0.00,255.00,VWS V14.01,2013-02-19 13:40:00,
2013-02-19 08:42:00,24.4,-1.2,29.98,NNW,337,0.0,0.0,32,0.00,,CLR,0.00,264.00,VWS V14.01,2013-02-19 13:42:00,
2013-02-19 08:45:00,24.8,-2.9,29.98,NNW,330,4.0,4.0,29,0.00,,CLR,0.00,239.00,VWS V14.01,2013-02-19 13:45:00,
2013-02-19 08:47:00,25.0,-3.5,29.98,NW,319,0.0,4.0,28,0.00,,CLR,0.00,243.00,VWS V14.01,2013-02-19 13:47:00,
2013-02-19 08:50:00,25.3,-3.2,29.98,NNW,329,0.0,4.0,28,0.00,,CLR,0.00,223.00,VWS V14.01,2013-02-19 13:50:00,
2013-02-19 08:51:00,25.4,-3.9,29.98,NNW,330,0.0,4.0,27,0.00,,CLR,0.00,238.00,VWS V14.01,2013-02-19 13:51:00,
2013-02-19 08:52:00,25.4,-4.7,29.98,NW,326,0.0,4.0,26,0.00,,CLR,0.00,257.00,VWS V14.01,2013-02-19 13:52:00,
2013-02-19 08:55:00,25.8,-5.2,29.98,NW,326,0.0,4.0,25,0.00,,CLR,0.00,333.00,VWS V14.01,2013-02-19 13:55:00,
2013-02-19 08:56:00,26.0,-5.0,29.98,NNW,332,0.0,4.0,25,0.00,,CLR,0.00,343.00,VWS V14.01,2013-02-19 13:56:00,
2013-02-19 08:58:00,26.1,-4.9,29.98,NNW,330,0.0,4.0,25,0.00,,CLR,0.00,294.00,VWS V14.01,2013-02-19 13:58:00,
2013-02-19 09:00:00,26.6,-3.7,29.98,NW,304,3.0,4.0,26,0.00,,CLR,0.00,315.00,VWS V14.01,2013-02-19 14:00:00,
2013-02-19 09:01:00,26.7,-4.4,29.98,NW,308,0.0,4.0,25,0.00,,CLR,0.00,306.00,VWS V14.01,2013-02-19 14:01:00,
2013-02-19 09:03:00,27.0,-3.3,29.98,WNW,299,0.0,0.0,26,0.00,,FEW048,0.00,370.00,VWS V14.01,2013-02-19 14:03:00,
2013-02-19 09:06:00,27.6,-2.0,29.98,NW,309,0.0,0.0,27,0.00,,FEW048,0.00,382.00,VWS V14.01,2013-02-19 14:06:00,
2013-02-19 09:08:00,27.9,-1.7,29.98,WNW,302,0.0,0.0,27,0.00,,FEW048,0.00,364.00,VWS V14.01,2013-02-19 14:08:00,
2013-02-19 09:11:00,28.2,-4.0,29.98,NW,315,0.0,2.0,24,0.00,,FEW048,0.00,252.00,VWS V14.01,2013-02-19 14:11:00,
2013-02-19 09:12:00,28.4,-4.7,29.98,NW,316,0.0,2.0,23,0.00,,FEW048,0.00,222.00,VWS V14.01,2013-02-19 14:12:00,
2013-02-19 09:13:00,28.5,-3.7,29.98,NW,318,0.0,2.0,24,0.00,,FEW048,0.00,208.00,VWS V14.01,2013-02-19 14:13:00,
2013-02-19 09:16:00,28.7,-4.4,29.97,NW,313,0.0,2.0,23,0.00,,FEW048,0.00,178.00,VWS V14.01,2013-02-19 14:16:00,
2013-02-19 09:17:00,28.8,-5.2,29.97,NW,313,0.0,2.0,22,0.00,,FEW048,0.00,176.00,VWS V14.01,2013-02-19 14:17:00,
2013-02-19 09:18:00,28.8,-5.2,29.97,NW,318,0.0,2.0,22,0.00,,FEW048,0.00,176.00,VWS V14.01,2013-02-19 14:18:00,
2013-02-19 09:19:00,29.0,-4.2,29.97,NW,318,0.0,2.0,23,0.00,,FEW048,0.00,174.00,VWS V14.01,2013-02-19 14:19:00,
2013-02-19 09:22:00,29.0,-4.2,29.97,NW,320,0.0,2.0,23,0.00,,FEW048,0.00,167.00,VWS V14.01,2013-02-19 14:22:00,
2013-02-19 09:23:00,29.0,-6.0,29.97,NW,322,0.0,2.0,21,0.00,,FEW048,0.00,164.00,VWS V14.01,2013-02-19 14:23:00,
2013-02-19 09:24:00,29.1,-5.9,29.97,NW,319,0.0,2.0,21,0.00,,FEW048,0.00,162.00,VWS V14.01,2013-02-19 14:24:00,
2013-02-19 09:27:00,29.1,-5.0,29.97,NW,318,0.0,2.0,22,0.00,,FEW048,0.00,158.00,VWS V14.01,2013-02-19 14:27:00,
2013-02-19 09:28:00,29.1,-5.0,29.97,NW,318,0.0,2.0,22,0.00,,FEW048,0.00,153.00,VWS V14.01,2013-02-19 14:28:00,
2013-02-19 09:29:00,29.1,-5.9,29.97,NW,319,0.0,2.0,21,0.00,,FEW048,0.00,144.00,VWS V14.01,2013-02-19 14:29:00,
2013-02-19 09:30:00,34.9,-2.1,29.97,NW,312,0.0,3.0,20,0.00,,FEW080,0.00,545.00,VWS V14.01,2013-02-19 14:30:00,
2013-02-19 09:32:00,29.3,-3.0,29.97,NW,318,0.0,0.0,24,0.00,,FEW048,0.00,139.00,VWS V14.01,2013-02-19 14:32:00,
2013-02-19 09:33:00,29.3,-3.9,29.97,NW,309,0.0,0.0,23,0.00,,FEW048,0.00,137.00,VWS V14.01,2013-02-19 14:33:00,
2013-02-19 09:34:00,29.3,-3.9,29.97,NW,318,0.0,0.0,23,0.00,,FEW048,0.00,137.00,VWS V14.01,2013-02-19 14:34:00,
2013-02-19 09:37:00,29.3,-3.0,29.97,NW,315,0.0,2.0,24,0.00,,FEW048,0.00,146.00,VWS V14.01,2013-02-19 14:37:00,
2013-02-19 09:38:00,29.4,-2.9,29.97,NW,316,0.0,2.0,24,0.00,,FEW048,0.00,150.00,VWS V14.01,2013-02-19 14:38:00,
2013-02-19 09:40:00,29.4,-1.2,29.97,NW,313,0.0,2.0,26,0.00,,FEW048,0.00,169.00,VWS V14.01,2013-02-19 14:40:00,
2013-02-19 09:42:00,29.4,-2.9,29.97,NW,316,0.0,2.0,24,0.00,,FEW048,0.00,206.00,VWS V14.01,2013-02-19 14:42:00,
2013-02-19 09:43:00,29.4,-2.9,29.97,NW,320,0.0,2.0,24,0.00,,FEW048,0.00,216.00,VWS V14.01,2013-02-19 14:43:00,
2013-02-19 09:45:00,29.5,-3.7,29.97,NW,320,0.0,2.0,23,0.00,,FEW048,0.00,216.00,VWS V14.01,2013-02-19 14:45:00,
2013-02-19 09:48:00,29.5,-3.7,29.97,NW,318,0.0,2.0,23,0.00,,FEW048,0.00,211.00,VWS V14.01,2013-02-19 14:48:00,
2013-02-19 09:50:00,29.7,-2.7,29.97,NW,319,0.0,2.0,24,0.00,,FEW048,0.00,216.00,VWS V14.01,2013-02-19 14:50:00,
2013-02-19 09:51:00,29.7,-2.7,29.97,NW,319,0.0,2.0,24,0.00,,FEW048,0.00,239.00,VWS V14.01,2013-02-19 14:51:00,
2013-02-19 09:53:00,29.7,-3.5,29.97,NW,316,0.0,3.0,23,0.00,,FEW048,0.00,267.00,VWS V14.01,2013-02-19 14:53:00,
2013-02-19 09:55:00,29.8,-3.5,29.97,WNW,299,0.0,3.0,23,0.00,,FEW048,0.00,301.00,VWS V14.01,2013-02-19 14:55:00,
2013-02-19 09:56:00,30.0,-3.3,29.97,NW,308,0.0,3.0,23,0.00,,FEW048,0.00,301.00,VWS V14.01,2013-02-19 14:56:00,
2013-02-19 09:58:00,30.1,-3.2,29.97,NW,306,0.0,4.0,23,0.00,,FEW048,0.00,348.00,VWS V14.01,2013-02-19 14:58:00,
2013-02-19 09:59:00,30.1,-3.2,29.97,NW,304,0.0,4.0,23,0.00,,FEW048,0.00,329.00,VWS V14.01,2013-02-19 14:59:00,
2013-02-19 10:00:00,30.3,-2.2,29.97,NW,309,0.0,4.0,24,0.00,,FEW048,0.00,310.00,VWS V14.01,2013-02-19 15:00:00,
2013-02-19 10:01:00,30.3,-2.2,29.97,NW,312,0.0,4.0,24,0.00,,FEW048,0.00,318.00,VWS V14.01,2013-02-19 15:01:00,
2013-02-19 10:04:00,30.6,-1.0,29.97,NW,305,0.0,0.0,25,0.00,,CLR,0.00,259.00,VWS V14.01,2013-02-19 15:04:00,
2013-02-19 10:05:00,30.6,-1.9,29.97,NW,315,0.0,2.0,24,0.00,,CLR,0.00,230.00,VWS V14.01,2013-02-19 15:05:00,
2013-02-19 10:06:00,30.6,-1.9,29.97,NW,308,0.0,2.0,24,0.00,,CLR,0.00,201.00,VWS V14.01,2013-02-19 15:06:00,
2013-02-19 10:09:00,30.7,-2.7,29.97,NW,305,0.0,3.0,23,0.00,,CLR,0.00,209.00,VWS V14.01,2013-02-19 15:09:00,
2013-02-19 10:10:00,30.7,-1.8,29.97,NW,306,0.0,3.0,24,0.00,,CLR,0.00,230.00,VWS V14.01,2013-02-19 15:10:00,
2013-02-19 10:12:00,30.9,-0.8,29.97,NW,308,0.0,3.0,25,0.00,,CLR,0.00,230.00,VWS V14.01,2013-02-19 15:12:00,
2013-02-19 10:14:00,31.2,-1.4,29.97,NW,309,0.0,3.0,24,0.00,,CLR,0.00,271.00,VWS V14.01,2013-02-19 15:14:00,
2013-02-19 10:15:00,31.2,-2.3,29.97,NW,309,0.0,3.0,23,0.00,,CLR,0.00,271.00,VWS V14.01,2013-02-19 15:15:00,
2013-02-19 10:17:00,31.5,-2.0,29.97,NW,326,0.0,3.0,23,0.00,,CLR,0.00,380.00,VWS V14.01,2013-02-19 15:17:00,
2013-02-19 10:19:00,31.8,-2.7,29.97,NW,313,0.0,3.0,22,0.00,,CLR,0.00,574.00,VWS V14.01,2013-02-19 15:19:00,
2013-02-19 10:21:00,31.9,-1.7,29.97,NW,312,0.0,3.0,23,0.00,,CLR,0.00,516.00,VWS V14.01,2013-02-19 15:21:00,
2013-02-19 10:22:00,32.4,0.5,29.97,NW,315,0.0,3.0,25,0.00,,CLR,0.00,626.00,VWS V14.01,2013-02-19 15:22:00,
2013-02-19 10:24:00,32.9,0.9,29.97,NW,311,0.0,3.0,25,0.00,,CLR,0.00,567.00,VWS V14.01,2013-02-19 15:24:00,
2013-02-19 10:25:00,33.1,-1.6,29.97,NW,311,0.0,3.0,22,0.00,,CLR,0.00,551.00,VWS V14.01,2013-02-19 15:25:00,
2013-02-19 10:26:00,33.4,0.5,29.97,NW,311,0.0,3.0,24,0.00,,CLR,0.00,547.00,VWS V14.01,2013-02-19 15:26:00,
2013-02-19 10:27:00,33.5,-2.2,29.97,NW,320,0.0,3.0,21,0.00,,CLR,0.00,542.00,VWS V14.01,2013-02-19 15:27:00,
2013-02-19 10:30:00,34.4,0.4,29.97,NW,316,0.0,3.0,23,0.00,,CLR,0.00,535.00,VWS V14.01,2013-02-19 15:30:00,
2013-02-19 10:31:00,34.7,-1.2,29.97,NW,311,0.0,3.0,21,0.00,,CLR,0.00,535.00,VWS V14.01,2013-02-19 15:31:00,
2013-02-19 10:33:00,35.5,0.4,29.97,NW,311,0.0,0.0,22,0.00,,CLR,0.00,538.00,VWS V14.01,2013-02-19 15:33:00,
2013-02-19 10:35:00,35.8,-2.4,29.97,WNW,284,0.0,3.0,19,0.00,,CLR,0.00,542.00,VWS V14.01,2013-02-19 15:35:00,
2013-02-19 10:36:00,35.8,-3.5,29.97,West,280,0.0,3.0,18,0.00,,CLR,0.00,544.00,VWS V14.01,2013-02-19 15:36:00,
2013-02-19 10:38:00,36.2,-3.2,29.97,WNW,282,0.0,3.0,18,0.00,,CLR,0.00,554.00,VWS V14.01,2013-02-19 15:38:00,
2013-02-19 10:40:00,36.6,-2.9,29.97,West,280,0.0,3.0,18,0.00,,CLR,0.00,519.00,VWS V14.01,2013-02-19 15:40:00,
2013-02-19 10:41:00,36.6,-2.9,29.97,West,281,0.0,3.0,18,0.00,,CLR,0.00,519.00,VWS V14.01,2013-02-19 15:41:00,
2013-02-19 10:42:00,36.9,-3.8,29.97,West,281,0.0,3.0,17,0.00,,CLR,0.00,524.00,VWS V14.01,2013-02-19 15:42:00,
2013-02-19 10:43:00,37.2,-2.4,29.97,WNW,288,0.0,3.0,18,0.00,,CLR,0.00,542.00,VWS V14.01,2013-02-19 15:43:00,
2013-02-19 10:46:00,37.8,0.3,29.95,WNW,289,0.0,3.0,20,0.00,,CLR,0.00,538.00,VWS V14.01,2013-02-19 15:46:00,
2013-02-19 10:47:00,38.0,-2.9,29.95,WNW,284,0.0,3.0,17,0.00,,CLR,0.00,542.00,VWS V14.01,2013-02-19 15:47:00,
2013-02-19 10:48:00,38.2,-1.6,29.95,West,275,0.0,3.0,18,0.00,,CLR,0.00,535.00,VWS V14.01,2013-02-19 15:48:00,
2013-02-19 10:51:00,38.5,-0.2,29.95,West,275,0.0,3.0,19,0.00,,CLR,0.00,563.00,VWS V14.01,2013-02-19 15:51:00,
2013-02-19 10:52:00,38.8,0.1,29.95,West,272,0.0,3.0,19,0.00,,CLR,0.00,563.00,VWS V14.01,2013-02-19 15:52:00,
2013-02-19 10:53:00,38.9,-1.0,29.95,West,278,0.0,3.0,18,0.00,,CLR,0.00,560.00,VWS V14.01,2013-02-19 15:53:00,
2013-02-19 10:56:00,39.3,-0.6,29.95,WNW,282,0.0,3.0,18,0.00,,CLR,0.00,567.00,VWS V14.01,2013-02-19 15:56:00,
2013-02-19 10:57:00,39.5,-1.7,29.95,West,274,0.0,3.0,17,0.00,,CLR,0.00,568.00,VWS V14.01,2013-02-19 15:57:00,
2013-02-19 10:58:00,39.6,-1.6,29.95,West,280,0.0,3.0,17,0.00,,CLR,0.00,572.00,VWS V14.01,2013-02-19 15:58:00,
2013-02-19 11:00:00,41.5,5.5,29.92,WNW,285,2.0,3.0,22,0.00,,FEW080,0.00,294.00,VWS V14.01,2013-02-19 16:00:00,
2013-02-19 11:01:00,39.8,-1.5,29.94,West,274,0.0,4.0,17,0.00,,CLR,0.00,570.00,VWS V14.01,2013-02-19 16:01:00,
2013-02-19 11:02:00,39.9,-1.4,29.94,West,274,0.0,0.0,17,0.00,,CLR,0.00,558.00,VWS V14.01,2013-02-19 16:02:00,
2013-02-19 11:03:00,40.1,-1.2,29.94,West,264,0.0,2.0,17,0.00,,CLR,0.00,570.00,VWS V14.01,2013-02-19 16:03:00,
2013-02-19 11:06:00,40.1,-2.5,29.94,West,265,0.0,2.0,16,0.00,,CLR,0.00,558.00,VWS V14.01,2013-02-19 16:06:00,
2013-02-19 11:07:00,40.2,-1.1,29.94,West,264,0.0,2.0,17,0.00,,CLR,0.00,535.00,VWS V14.01,2013-02-19 16:07:00,
2013-02-19 11:08:00,40.2,-1.1,29.94,West,264,0.0,2.0,17,0.00,,CLR,0.00,535.00,VWS V14.01,2013-02-19 16:08:00,
2013-02-19 11:09:00,40.3,0.2,29.94,West,280,0.0,2.0,18,0.00,,CLR,0.00,540.00,VWS V14.01,2013-02-19 16:09:00,
2013-02-19 11:11:00,40.6,0.4,29.94,West,274,0.0,2.0,18,0.00,,CLR,0.00,533.00,VWS V14.01,2013-02-19 16:11:00,
2013-02-19 11:13:00,40.8,1.8,29.94,West,278,0.0,2.0,19,0.00,,CLR,0.00,531.00,VWS V14.01,2013-02-19 16:13:00,
2013-02-19 11:14:00,40.9,2.9,29.94,West,275,0.0,2.0,20,0.00,,CLR,0.00,542.00,VWS V14.01,2013-02-19 16:14:00,
2013-02-19 11:16:00,41.1,-0.4,29.93,West,281,0.0,2.0,17,0.00,,CLR,0.00,565.00,VWS V14.01,2013-02-19 16:16:00,
2013-02-19 11:18:00,41.2,0.9,29.93,WNW,294,4.0,6.0,18,0.00,,CLR,0.00,552.00,VWS V14.01,2013-02-19 16:18:00,
2013-02-19 11:19:00,41.2,-0.3,29.93,WNW,301,0.0,6.0,17,0.00,,CLR,0.00,560.00,VWS V14.01,2013-02-19 16:19:00,
2013-02-19 11:21:00,41.2,2.1,29.93,WNW,294,0.0,6.0,19,0.00,,CLR,0.00,552.00,VWS V14.01,2013-02-19 16:21:00,
2013-02-19 11:23:00,41.1,0.8,29.93,WNW,298,0.0,6.0,18,0.00,,CLR,0.00,537.00,VWS V14.01,2013-02-19 16:23:00,
2013-02-19 11:24:00,41.2,3.2,29.93,WNW,298,0.0,6.0,20,0.00,,CLR,0.00,572.00,VWS V14.01,2013-02-19 16:24:00,
2013-02-19 11:27:00,41.2,0.9,29.93,WNW,298,0.0,6.0,18,0.00,,CLR,0.00,479.00,VWS V14.01,2013-02-19 16:27:00,
2013-02-19 11:28:00,41.2,0.9,29.93,WNW,291,0.0,6.0,18,0.00,,CLR,0.00,479.00,VWS V14.01,2013-02-19 16:28:00,
2013-02-19 11:29:00,41.2,0.9,29.93,WNW,288,0.0,6.0,18,0.00,,CLR,0.00,452.00,VWS V14.01,2013-02-19 16:29:00,
2013-02-19 11:30:00,40.2,7.2,29.89,WSW,239,2.0,5.0,25,0.00,,FEW080,0.00,512.00,VWS V14.01,2013-02-19 16:30:00,
2013-02-19 11:33:00,40.9,0.7,29.93,WNW,287,0.0,0.0,18,0.00,,CLR,0.00,494.00,VWS V14.01,2013-02-19 16:33:00,
2013-02-19 11:34:00,40.9,0.7,29.93,WNW,288,0.0,0.0,18,0.00,,CLR,0.00,509.00,VWS V14.01,2013-02-19 16:34:00,
2013-02-19 11:38:00,40.9,1.8,29.93,WNW,292,0.0,3.0,19,0.00,,CLR,0.00,558.00,VWS V14.01,2013-02-19 16:38:00,
2013-02-19 11:39:00,40.9,1.8,29.93,WNW,294,0.0,3.0,19,0.00,,CLR,0.00,558.00,VWS V14.01,2013-02-19 16:39:00,
2013-02-19 11:43:00,41.1,5.2,29.93,WNW,287,0.0,3.0,22,0.00,,CLR,0.00,538.00,VWS V14.01,2013-02-19 16:43:00,
2013-02-19 11:44:00,41.1,5.2,29.93,West,281,0.0,3.0,22,0.00,,CLR,0.00,505.00,VWS V14.01,2013-02-19 16:44:00,
2013-02-19 11:45:00,41.2,5.2,29.93,WNW,284,0.0,3.0,22,0.00,,CLR,0.00,493.00,VWS V14.01,2013-02-19 16:45:00,
2013-02-19 11:48:00,41.3,2.2,29.93,WNW,282,0.0,3.0,19,0.00,,CLR,0.00,382.00,VWS V14.01,2013-02-19 16:48:00,
2013-02-19 11:49:00,41.3,2.2,29.93,West,278,0.0,3.0,19,0.00,,CLR,0.00,340.00,VWS V14.01,2013-02-19 16:49:00,
2013-02-19 11:50:00,41.3,1.0,29.93,WNW,284,0.0,3.0,18,0.00,,CLR,0.00,370.00,VWS V14.01,2013-02-19 16:50:00,
2013-02-19 11:54:00,41.3,4.3,29.93,West,280,0.0,3.0,21,0.00,,CLR,0.00,392.00,VWS V14.01,2013-02-19 16:54:00,
2013-02-19 11:55:00,41.5,3.4,29.93,West,268,0.0,3.0,20,0.00,,CLR,0.00,391.00,VWS V14.01,2013-02-19 16:55:00,
2013-02-19 11:59:00,41.5,5.5,29.93,West,270,0.0,3.0,22,0.00,,CLR,0.00,377.00,VWS V14.01,2013-02-19 16:59:00,
2013-02-19 12:00:00,41.5,5.5,29.93,West,263,0.0,3.0,22,0.00,,CLR,0.00,348.00,VWS V14.01,2013-02-19 17:00:00,
2013-02-19 12:01:00,41.5,6.5,29.92,West,275,0.0,3.0,23,0.00,,CLR,0.00,311.00,VWS V14.01,2013-02-19 17:01:00,
2013-02-19 12:04:00,41.1,2.0,29.92,West,281,0.0,3.0,19,0.00,,CLR,0.00,310.00,VWS V14.01,2013-02-19 17:04:00,
2013-02-19 12:05:00,40.9,1.8,29.92,West,278,0.0,3.0,19,0.00,,CLR,0.00,320.00,VWS V14.01,2013-02-19 17:05:00,
2013-02-19 12:06:00,40.8,3.9,29.92,West,272,0.0,3.0,21,0.00,,CLR,0.00,317.00,VWS V14.01,2013-02-19 17:06:00,
2013-02-19 12:10:00,40.5,3.7,29.92,West,271,0.0,3.0,21,0.00,,CLR,0.00,338.00,VWS V14.01,2013-02-19 17:10:00,
2013-02-19 12:11:00,40.3,4.5,29.92,WSW,244,0.0,3.0,22,0.00,,CLR,0.00,357.00,VWS V14.01,2013-02-19 17:11:00,
2013-02-19 12:15:00,40.2,6.3,29.92,West,272,0.0,3.0,24,0.00,,CLR,0.00,350.00,VWS V14.01,2013-02-19 17:15:00,
2013-02-19 12:16:00,40.2,7.2,29.90,West,268,0.0,3.0,25,0.00,,CLR,0.00,350.00,VWS V14.01,2013-02-19 17:16:00,
2013-02-19 12:17:00,40.2,8.1,29.90,West,267,0.0,3.0,26,0.00,,CLR,0.00,343.00,VWS V14.01,2013-02-19 17:17:00,
2013-02-19 12:20:00,40.1,8.8,29.90,WSW,256,0.0,3.0,27,0.00,,CLR,0.00,382.00,VWS V14.01,2013-02-19 17:20:00,
2013-02-19 12:21:00,40.1,8.8,29.90,West,264,0.0,3.0,27,0.00,,CLR,0.00,382.00,VWS V14.01,2013-02-19 17:21:00,
2013-02-19 12:22:00,40.1,8.0,29.90,West,263,0.0,3.0,26,0.00,,CLR,0.00,396.00,VWS V14.01,2013-02-19 17:22:00,
2013-02-19 12:26:00,40.1,6.2,29.90,WSW,253,0.0,5.0,24,0.00,,CLR,0.00,535.00,VWS V14.01,2013-02-19 17:26:00,
2013-02-19 12:27:00,40.1,4.3,29.90,WSW,257,0.0,5.0,22,0.00,,CLR,0.00,498.00,VWS V14.01,2013-02-19 17:27:00,
2013-02-19 12:30:00,40.9,9.5,29.86,WSW,240,0.0,6.0,27,0.00,,FEW080,0.00,421.00,VWS V14.01,2013-02-19 17:30:00,
2013-02-19 12:31:00,40.2,5.4,29.89,WSW,253,1.0,5.0,23,0.00,,CLR,0.00,533.00,VWS V14.01,2013-02-19 17:31:00,
2013-02-19 12:32:00,40.2,7.2,29.89,WSW,258,0.0,2.0,25,0.00,,CLR,0.00,484.00,VWS V14.01,2013-02-19 17:32:00,
2013-02-19 12:36:00,40.2,5.4,29.89,WSW,250,0.0,6.0,23,0.00,,CLR,0.00,526.00,VWS V14.01,2013-02-19 17:36:00,
2013-02-19 12:37:00,40.1,5.3,29.89,WSW,246,0.0,6.0,23,0.00,,CLR,0.00,523.00,VWS V14.01,2013-02-19 17:37:00,
2013-02-19 12:42:00,40.5,8.3,29.89,WSW,240,0.0,6.0,26,0.00,,CLR,0.00,501.00,VWS V14.01,2013-02-19 17:42:00,
2013-02-19 12:47:00,40.5,5.6,29.88,WSW,243,3.0,7.0,23,0.00,,CLR,0.00,345.00,VWS V14.01,2013-02-19 17:47:00,
2013-02-19 12:52:00,40.5,6.6,29.88,WSW,251,1.0,7.0,24,0.00,,CLR,0.00,361.00,VWS V14.01,2013-02-19 17:52:00,
2013-02-19 12:53:00,40.5,6.6,29.88,WSW,244,0.0,7.0,24,0.00,,CLR,0.00,361.00,VWS V14.01,2013-02-19 17:53:00,
2013-02-19 12:58:00,40.6,9.2,29.88,WSW,248,0.0,7.0,27,0.00,,CLR,0.00,384.00,VWS V14.01,2013-02-19 17:58:00,
2013-02-19 13:00:00,40.8,11.8,29.84,WSW,256,0.0,7.0,30,0.00,,FEW080,0.00,218.00,VWS V14.01,2013-02-19 18:00:00,
2013-02-19 13:03:00,40.8,7.7,29.88,West,267,6.0,6.0,25,0.00,,CLR,0.00,334.00,VWS V14.01,2013-02-19 18:03:00,
2013-02-19 13:04:00,40.8,7.7,29.88,West,263,1.0,6.0,25,0.00,,CLR,0.00,315.00,VWS V14.01,2013-02-19 18:04:00,
2013-02-19 13:08:00,40.9,8.7,29.88,West,260,0.0,6.0,26,0.00,,CLR,0.00,318.00,VWS V14.01,2013-02-19 18:08:00,
2013-02-19 13:09:00,40.9,8.7,29.88,West,264,0.0,6.0,26,0.00,,CLR,0.00,318.00,VWS V14.01,2013-02-19 18:09:00,
2013-02-19 13:13:00,41.1,10.5,29.88,West,267,0.0,6.0,28,0.00,,CLR,0.00,301.00,VWS V14.01,2013-02-19 18:13:00,
2013-02-19 13:14:00,41.1,10.5,29.88,West,274,0.0,6.0,28,0.00,,CLR,0.00,301.00,VWS V14.01,2013-02-19 18:14:00,
2013-02-19 13:18:00,40.8,8.6,29.87,WSW,248,0.0,6.0,26,0.00,,CLR,0.00,331.00,VWS V14.01,2013-02-19 18:18:00,
2013-02-19 13:19:00,40.8,9.4,29.87,WSW,257,0.0,6.0,27,0.00,,CLR,0.00,331.00,VWS V14.01,2013-02-19 18:19:00,
2013-02-19 13:24:00,40.8,6.8,29.87,SW,226,0.0,6.0,24,0.00,,CLR,0.00,352.00,VWS V14.01,2013-02-19 18:24:00,
2013-02-19 13:25:00,40.6,7.6,29.87,SW,234,0.0,6.0,25,0.00,,CLR,0.00,343.00,VWS V14.01,2013-02-19 18:25:00,
2013-02-19 13:29:00,40.8,8.6,29.87,WSW,237,0.0,6.0,26,0.00,,CLR,0.00,396.00,VWS V14.01,2013-02-19 18:29:00,
2013-02-19 13:30:00,40.8,8.6,29.87,SW,236,0.0,6.0,26,0.00,,CLR,0.00,408.00,VWS V14.01,2013-02-19 18:30:00,
2013-02-19 13:34:00,41.2,9.8,29.86,SW,226,2.0,6.0,27,0.00,,CLR,0.00,479.00,VWS V14.01,2013-02-19 18:34:00,
2013-02-19 13:35:00,41.2,8.1,29.86,WSW,240,2.0,6.0,25,0.00,,CLR,0.00,479.00,VWS V14.01,2013-02-19 18:35:00,
2013-02-19 13:39:00,41.1,8.8,29.86,WSW,237,0.0,6.0,26,0.00,,CLR,0.00,391.00,VWS V14.01,2013-02-19 18:39:00,
2013-02-19 13:40:00,41.1,8.8,29.86,SW,233,0.0,6.0,26,0.00,,CLR,0.00,389.00,VWS V14.01,2013-02-19 18:40:00,
2013-02-19 13:44:00,41.2,9.8,29.86,West,268,2.0,7.0,27,0.00,,CLR,0.00,327.00,VWS V14.01,2013-02-19 18:44:00,
2013-02-19 13:45:00,41.2,9.8,29.86,West,275,0.0,7.0,27,0.00,,CLR,0.00,310.00,VWS V14.01,2013-02-19 18:45:00,
2013-02-19 13:50:00,41.2,9.8,29.85,WSW,240,0.0,7.0,27,0.00,,CLR,0.00,248.00,VWS V14.01,2013-02-19 18:50:00,
2013-02-19 13:51:00,41.2,10.6,29.85,WSW,237,0.0,7.0,28,0.00,,CLR,0.00,246.00,VWS V14.01,2013-02-19 18:51:00,
2013-02-19 13:55:00,41.1,12.0,29.85,WSW,258,0.0,7.0,30,0.00,,CLR,0.00,227.00,VWS V14.01,2013-02-19 18:55:00,
2013-02-19 13:56:00,40.9,11.1,29.85,WSW,258,0.0,7.0,29,0.00,,CLR,0.00,227.00,VWS V14.01,2013-02-19 18:56:00,
2013-02-19 14:00:00,40.8,12.5,29.85,West,260,0.0,7.0,31,0.00,,CLR,0.00,222.00,VWS V14.01,2013-02-19 19:00:00,
2013-02-19 14:01:00,40.8,12.5,29.84,West,263,0.0,7.0,31,0.00,,CLR,0.00,220.00,VWS V14.01,2013-02-19 19:01:00,
2013-02-19 14:05:00,40.6,12.4,29.84,WSW,258,0.0,1.0,31,0.00,,CLR,0.00,211.00,VWS V14.01,2013-02-19 19:05:00,
2013-02-19 14:06:00,40.6,12.4,29.84,WSW,256,0.0,1.0,31,0.00,,CLR,0.00,208.00,VWS V14.01,2013-02-19 19:06:00,
2013-02-19 14:07:00,40.6,13.8,29.84,WSW,258,0.0,1.0,33,0.00,,CLR,0.00,204.00,VWS V14.01,2013-02-19 19:07:00,
2013-02-19 14:11:00,40.6,13.8,29.84,West,267,0.0,1.0,33,0.00,,CLR,0.00,185.00,VWS V14.01,2013-02-19 19:11:00,
2013-02-19 14:12:00,40.5,14.4,29.84,WSW,257,0.0,1.0,34,0.00,,CLR,0.00,179.00,VWS V14.01,2013-02-19 19:12:00,
2013-02-19 14:16:00,40.3,13.5,29.85,West,270,0.0,5.0,33,0.00,,CLR,0.00,160.00,VWS V14.01,2013-02-19 19:16:00,
2013-02-19 14:17:00,40.3,12.1,29.85,WNW,292,5.0,5.0,31,0.00,,CLR,0.00,157.00,VWS V14.01,2013-02-19 19:17:00,
2013-02-19 14:21:00,40.1,12.6,29.85,NW,306,0.0,6.0,32,0.00,,CLR,0.00,146.00,VWS V14.01,2013-02-19 19:21:00,
2013-02-19 14:22:00,40.1,12.6,29.85,WNW,284,3.0,6.0,32,0.00,,CLR,0.00,146.00,VWS V14.01,2013-02-19 19:22:00,
2013-02-19 14:26:00,39.8,15.7,29.85,West,267,0.0,6.0,37,0.00,,CLR,0.00,157.00,VWS V14.01,2013-02-19 19:26:00,
2013-02-19 14:27:00,39.8,15.7,29.85,West,272,1.0,6.0,37,0.00,,CLR,0.00,157.00,VWS V14.01,2013-02-19 19:27:00,
2013-02-19 14:30:00,36.3,16.5,29.81,West,263,0.0,8.0,44,0.00,,FEW080,0.00,42.00,VWS V14.01,2013-02-19 19:30:00,
2013-02-19 14:32:00,39.2,15.1,29.84,West,281,0.0,0.0,37,0.00,,CLR,0.00,155.00,VWS V14.01,2013-02-19 19:32:00,
2013-02-19 14:33:00,39.1,14.4,29.84,West,274,2.0,5.0,36,0.00,,CLR,0.00,155.00,VWS V14.01,2013-02-19 19:33:00,
2013-02-19 14:37:00,38.8,14.1,29.84,West,265,3.0,7.0,36,0.00,,CLR,0.00,132.00,VWS V14.01,2013-02-19 19:37:00,
2013-02-19 14:38:00,38.8,13.5,29.84,WSW,244,6.0,8.0,35,0.00,,CLR,0.00,127.00,VWS V14.01,2013-02-19 19:38:00,
2013-02-19 14:42:00,38.5,16.3,29.84,West,278,0.0,11.0,40,0.00,,CLR,0.00,111.00,VWS V14.01,2013-02-19 19:42:00,
2013-02-19 14:43:00,38.5,15.7,29.84,WNW,294,6.0,11.0,39,0.00,,CLR,0.00,111.00,VWS V14.01,2013-02-19 19:43:00,
2013-02-19 14:44:00,38.5,15.7,29.84,WNW,298,0.0,11.0,39,0.00,,CLR,0.00,111.00,VWS V14.01,2013-02-19 19:44:00,
2013-02-19 14:47:00,38.2,14.8,29.83,West,281,0.0,11.0,38,0.00,,CLR,0.00,100.00,VWS V14.01,2013-02-19 19:47:00,
2013-02-19 14:48:00,38.2,16.0,29.83,WNW,292,0.0,11.0,40,0.00,,CLR,0.00,100.00,VWS V14.01,2013-02-19 19:48:00,
2013-02-19 14:49:00,38.2,15.4,29.83,West,281,0.0,11.0,39,0.00,,CLR,0.00,99.00,VWS V14.01,2013-02-19 19:49:00,
2013-02-19 14:52:00,38.0,16.4,29.83,WSW,247,1.0,11.0,41,0.00,,CLR,0.00,99.00,VWS V14.01,2013-02-19 19:52:00,
2013-02-19 14:53:00,38.0,15.8,29.83,WSW,256,1.0,11.0,40,0.00,,CLR,0.00,99.00,VWS V14.01,2013-02-19 19:53:00,
2013-02-19 14:54:00,37.9,16.3,29.83,WNW,294,5.0,11.0,41,0.00,,CLR,0.00,100.00,VWS V14.01,2013-02-19 19:54:00,
2013-02-19 14:58:00,37.8,15.1,29.83,WSW,258,2.0,11.0,39,0.00,,CLR,0.00,111.00,VWS V14.01,2013-02-19 19:58:00,
2013-02-19 14:59:00,37.8,14.5,29.83,WSW,257,2.0,11.0,38,0.00,,CLR,0.00,113.00,VWS V14.01,2013-02-19 19:59:00,
2013-02-19 15:00:00,34.9,20.0,29.79,West,272,2.0,10.0,54,0.00,,FEW080,0.00,28.00,VWS V14.01,2013-02-19 20:00:00,
2013-02-19 15:03:00,37.6,14.3,29.83,WSW,248,0.0,7.0,38,0.00,,SCT120,0.00,109.00,VWS V14.01,2013-02-19 20:03:00,
2013-02-19 15:04:00,37.5,14.2,29.83,West,280,0.0,7.0,38,0.00,,SCT120,0.00,109.00,VWS V14.01,2013-02-19 20:04:00,
2013-02-19 15:08:00,37.3,15.8,29.83,West,278,3.0,8.0,41,0.00,,SCT120,0.00,100.00,VWS V14.01,2013-02-19 20:08:00,
2013-02-19 15:09:00,37.3,14.6,29.83,WSW,254,2.0,8.0,39,0.00,,SCT120,0.00,90.00,VWS V14.01,2013-02-19 20:09:00,
2013-02-19 15:13:00,37.2,16.2,29.83,WNW,292,1.0,8.0,42,0.00,,SCT120,0.00,74.00,VWS V14.01,2013-02-19 20:13:00,
2013-02-19 15:14:00,37.2,15.7,29.83,West,270,2.0,8.0,41,0.00,,SCT120,0.00,70.00,VWS V14.01,2013-02-19 20:14:00,
2013-02-19 15:15:00,37.0,15.5,29.83,West,265,3.0,8.0,41,0.00,,SCT120,0.00,70.00,VWS V14.01,2013-02-19 20:15:00,
2013-02-19 15:18:00,37.0,16.6,29.82,WNW,287,2.0,8.0,43,0.00,,SCT120,0.00,69.00,VWS V14.01,2013-02-19 20:18:00,
2013-02-19 15:19:00,36.9,16.0,29.82,WSW,254,5.0,8.0,42,0.00,,SCT120,0.00,63.00,VWS V14.01,2013-02-19 20:19:00,
2013-02-19 15:20:00,36.9,16.0,29.82,WSW,246,0.0,8.0,42,0.00,,SCT120,0.00,62.00,VWS V14.01,2013-02-19 20:20:00,
2013-02-19 15:24:00,36.8,16.4,29.82,West,268,2.0,8.0,43,0.00,,SCT120,0.00,55.00,VWS V14.01,2013-02-19 20:24:00,
2013-02-19 15:25:00,36.6,16.2,29.82,West,264,0.0,8.0,43,0.00,,SCT120,0.00,53.00,VWS V14.01,2013-02-19 20:25:00,
2013-02-19 15:29:00,36.5,17.2,29.82,West,261,4.0,8.0,45,0.00,,SCT120,0.00,46.00,VWS V14.01,2013-02-19 20:29:00,
2013-02-19 15:30:00,36.3,16.5,29.82,West,277,2.0,8.0,44,0.00,,SCT120,0.00,44.00,VWS V14.01,2013-02-19 20:30:00,
2013-02-19 15:34:00,36.2,15.9,29.81,WSW,258,0.0,6.0,43,0.00,,SCT120,0.00,42.00,VWS V14.01,2013-02-19 20:34:00,
2013-02-19 15:35:00,36.2,16.4,29.81,West,260,0.0,6.0,44,0.00,,SCT120,0.00,42.00,VWS V14.01,2013-02-19 20:35:00,
2013-02-19 15:39:00,35.8,16.5,29.81,WSW,250,1.0,7.0,45,0.00,,SCT120,0.00,46.00,VWS V14.01,2013-02-19 20:39:00,
2013-02-19 15:40:00,35.8,16.5,29.81,WSW,251,2.0,7.0,45,0.00,,SCT120,0.00,46.00,VWS V14.01,2013-02-19 20:40:00,
2013-02-19 15:41:00,35.8,16.5,29.81,West,267,0.0,7.0,45,0.00,,SCT120,0.00,46.00,VWS V14.01,2013-02-19 20:41:00,
2013-02-19 15:44:00,35.6,16.9,29.81,WSW,243,0.0,7.0,46,0.00,,SCT120,0.00,37.00,VWS V14.01,2013-02-19 20:44:00,
2013-02-19 15:45:00,35.5,16.8,29.81,SW,226,0.0,7.0,46,0.00,,SCT120,0.00,37.00,VWS V14.01,2013-02-19 20:45:00,
2013-02-19 15:46:00,35.5,16.8,29.80,SW,216,0.0,7.0,46,0.00,,SCT120,0.00,37.00,VWS V14.01,2013-02-19 20:46:00,
2013-02-19 15:49:00,35.3,17.6,29.80,SW,233,0.0,7.0,48,0.00,,SCT120,0.00,32.00,VWS V14.01,2013-02-19 20:49:00,
2013-02-19 15:50:00,35.3,17.1,29.80,WSW,247,3.0,7.0,47,0.00,,SCT120,0.00,32.00,VWS V14.01,2013-02-19 20:50:00,
2013-02-19 15:51:00,35.3,17.1,29.80,WSW,250,0.0,7.0,47,0.00,,SCT120,0.00,32.00,VWS V14.01,2013-02-19 20:51:00,
2013-02-19 15:55:00,35.2,18.0,29.80,West,267,5.0,7.0,49,0.00,,SCT120,0.00,30.00,VWS V14.01,2013-02-19 20:55:00,
2013-02-19 15:56:00,35.0,18.2,29.80,WSW,248,0.0,7.0,50,0.00,,SCT120,0.00,26.00,VWS V14.01,2013-02-19 20:56:00,
2013-02-19 16:00:00,34.9,19.5,29.80,WSW,251,0.0,10.0,53,0.00,,SCT120,0.00,28.00,VWS V14.01,2013-02-19 21:00:00,
2013-02-19 16:01:00,34.9,19.5,29.79,WSW,246,0.0,10.0,53,0.00,,SCT120,0.00,28.00,VWS V14.01,2013-02-19 21:01:00,
2013-02-19 16:05:00,34.9,20.4,29.79,SW,219,0.0,6.0,55,0.00,,OVC110,0.00,26.00,VWS V14.01,2013-02-19 21:05:00,
2013-02-19 16:06:00,34.9,20.4,29.79,SW,222,1.0,6.0,55,0.00,,OVC110,0.00,26.00,VWS V14.01,2013-02-19 21:06:00,
2013-02-19 16:11:00,34.7,21.0,29.79,WSW,241,0.0,6.0,57,0.00,,OVC110,0.00,23.00,VWS V14.01,2013-02-19 21:11:00,
2013-02-19 16:16:00,34.6,22.2,29.77,West,267,0.0,6.0,60,0.00,,OVC110,0.00,21.00,VWS V14.01,2013-02-19 21:16:00,
2013-02-19 16:17:00,34.6,22.2,29.77,West,270,0.0,6.0,60,0.00,,OVC110,0.00,19.00,VWS V14.01,2013-02-19 21:17:00,
2013-02-19 16:21:00,34.6,22.5,29.77,WSW,243,0.0,6.0,61,0.00,,OVC110,0.00,14.00,VWS V14.01,2013-02-19 21:21:00,
2013-02-19 16:22:00,34.4,22.7,29.77,WSW,244,0.0,6.0,62,0.00,,OVC110,0.00,14.00,VWS V14.01,2013-02-19 21:22:00,
2013-02-19 16:26:00,34.4,23.1,29.77,WSW,246,5.0,6.0,63,0.00,,OVC110,0.00,12.00,VWS V14.01,2013-02-19 21:26:00,
2013-02-19 16:27:00,34.4,23.1,29.77,WSW,244,0.0,6.0,63,0.00,,OVC110,0.00,12.00,VWS V14.01,2013-02-19 21:27:00,
2013-02-19 16:30:00,34.4,28.6,29.74,WSW,253,0.0,6.0,79,0.00,,FEW080,0.00,0.00,VWS V14.01,2013-02-19 21:30:00,
2013-02-19 16:31:00,34.3,23.8,29.77,WSW,239,0.0,6.0,65,0.00,,OVC110,0.00,11.00,VWS V14.01,2013-02-19 21:31:00,
2013-02-19 16:32:00,34.3,23.8,29.77,West,263,5.0,5.0,65,0.00,,OVC110,0.00,11.00,VWS V14.01,2013-02-19 21:32:00,
2013-02-19 16:36:00,34.3,24.5,29.77,SW,229,0.0,5.0,67,0.00,,OVC110,0.00,12.00,VWS V14.01,2013-02-19 21:36:00,
2013-02-19 16:37:00,34.3,24.5,29.77,WSW,241,1.0,5.0,67,0.00,,OVC110,0.00,12.00,VWS V14.01,2013-02-19 21:37:00,
2013-02-19 16:42:00,34.1,24.7,29.77,WSW,237,0.0,5.0,68,0.00,,OVC110,0.00,19.00,VWS V14.01,2013-02-19 21:42:00,
2013-02-19 16:43:00,34.1,25.0,29.77,WSW,248,0.0,5.0,69,0.00,,OVC110,0.00,19.00,VWS V14.01,2013-02-19 21:43:00,
2013-02-19 16:47:00,34.1,25.7,29.76,SW,236,0.0,6.0,71,0.00,,OVC110,0.00,14.00,VWS V14.01,2013-02-19 21:47:00,
2013-02-19 16:48:00,34.1,25.7,29.76,SW,234,0.0,6.0,71,0.00,,OVC110,0.00,14.00,VWS V14.01,2013-02-19 21:48:00,
2013-02-19 16:52:00,34.1,26.0,29.76,SW,233,0.0,6.0,72,0.00,,OVC110,0.00,12.00,VWS V14.01,2013-02-19 21:52:00,
2013-02-19 16:53:00,34.1,26.0,29.76,SW,232,0.0,6.0,72,0.00,,OVC110,0.00,12.00,VWS V14.01,2013-02-19 21:53:00,
2013-02-19 16:58:00,34.1,26.4,29.76,SW,234,0.0,6.0,73,0.00,,OVC110,0.00,11.00,VWS V14.01,2013-02-19 21:58:00,
2013-02-19 17:00:00,35.6,30.4,29.72,WSW,250,3.0,8.0,81,0.00,,FEW080,0.00,0.00,VWS V14.01,2013-02-19 22:00:00,
2013-02-19 17:03:00,34.1,26.7,29.75,West,281,3.0,6.0,74,0.00,,OVC044,0.00,5.00,VWS V14.01,2013-02-19 22:03:00,
2013-02-19 17:04:00,34.1,26.7,29.75,WSW,247,2.0,6.0,74,0.00,,OVC044,0.00,5.00,VWS V14.01,2013-02-19 22:04:00,
2013-02-19 17:08:00,34.1,26.7,29.75,SW,229,0.0,6.0,74,0.00,,OVC044,0.00,5.00,VWS V14.01,2013-02-19 22:08:00,
2013-02-19 17:09:00,34.1,27.0,29.75,SW,232,0.0,6.0,75,0.00,,OVC044,0.00,5.00,VWS V14.01,2013-02-19 22:09:00,
2013-02-19 17:13:00,34.1,27.0,29.75,SW,229,0.0,6.0,75,0.00,,OVC044,0.00,0.00,VWS V14.01,2013-02-19 22:13:00,
2013-02-19 17:14:00,34.1,27.0,29.75,SW,222,0.0,6.0,75,0.00,,OVC044,0.00,0.00,VWS V14.01,2013-02-19 22:14:00,
2013-02-19 17:15:00,34.1,27.0,29.75,SW,219,0.0,6.0,75,0.00,,OVC044,0.00,0.00,VWS V14.01,2013-02-19 22:15:00,
2013-02-19 17:18:00,34.3,27.5,29.75,WSW,237,0.0,6.0,76,0.00,,OVC044,0.00,0.00,VWS V14.01,2013-02-19 22:18:00,
2013-02-19 17:19:00,34.3,27.5,29.75,SW,236,0.0,6.0,76,0.00,,OVC044,0.00,0.00,VWS V14.01,2013-02-19 22:19:00,
2013-02-19 17:20:00,34.3,27.9,29.75,WSW,241,2.0,6.0,77,0.00,,OVC044,0.00,0.00,VWS V14.01,2013-02-19 22:20:00,
2013-02-19 17:24:00,34.3,28.2,29.75,WSW,246,0.0,6.0,78,0.00,,OVC044,0.00,0.00,VWS V14.01,2013-02-19 22:24:00,
2013-02-19 17:25:00,34.3,28.2,29.75,WSW,243,0.0,6.0,78,0.00,,OVC044,0.00,0.00,VWS V14.01,2013-02-19 22:25:00,
2013-02-19 17:29:00,34.4,28.6,29.75,WSW,251,0.0,6.0,79,0.00,,OVC044,0.00,0.00,VWS V14.01,2013-02-19 22:29:00,
2013-02-19 17:30:00,34.4,28.6,29.75,WSW,253,0.0,6.0,79,0.00,,OVC044,0.00,0.00,VWS V14.01,2013-02-19 22:30:00,
2013-02-19 17:34:00,34.6,29.1,29.74,WSW,254,0.0,3.0,80,0.00,,OVC044,0.00,0.00,VWS V14.01,2013-02-19 22:34:00,
2013-02-19 17:35:00,34.6,29.1,29.74,WSW,258,0.0,3.0,80,0.00,,OVC044,0.00,0.00,VWS V14.01,2013-02-19 22:35:00,
2013-02-19 17:36:00,34.6,29.1,29.74,WSW,248,0.0,3.0,80,0.00,,OVC044,0.00,0.00,VWS V14.01,2013-02-19 22:36:00,
2013-02-19 17:39:00,34.6,29.1,29.74,West,271,3.0,3.0,80,0.00,,OVC044,0.00,0.00,VWS V14.01,2013-02-19 22:39:00,
2013-02-19 17:40:00,34.7,29.2,29.74,West,267,0.0,3.0,80,0.00,,OVC044,0.00,0.00,VWS V14.01,2013-02-19 22:40:00,
2013-02-19 17:41:00,34.7,29.5,29.74,West,268,0.0,3.0,81,0.00,,OVC044,0.00,0.00,VWS V14.01,2013-02-19 22:41:00,
2013-02-19 17:44:00,34.7,29.5,29.74,WSW,248,2.0,6.0,81,0.00,,OVC044,0.00,0.00,VWS V14.01,2013-02-19 22:44:00,
2013-02-19 17:45:00,34.7,29.5,29.74,WSW,250,0.0,6.0,81,0.00,,OVC044,0.00,0.00,VWS V14.01,2013-02-19 22:45:00,
2013-02-19 17:46:00,34.9,29.7,29.73,WSW,254,0.0,6.0,81,0.00,,OVC044,0.00,0.00,VWS V14.01,2013-02-19 22:46:00,
2013-02-19 17:50:00,34.9,29.7,29.73,WNW,298,5.0,8.0,81,0.00,,OVC044,0.00,0.00,VWS V14.01,2013-02-19 22:50:00,
2013-02-19 17:51:00,35.0,29.8,29.73,West,278,5.0,8.0,81,0.00,,OVC044,0.00,0.00,VWS V14.01,2013-02-19 22:51:00,
2013-02-19 17:52:00,35.0,29.8,29.73,West,270,4.0,8.0,81,0.00,,OVC044,0.00,0.00,VWS V14.01,2013-02-19 22:52:00,
2013-02-19 17:55:00,35.3,30.1,29.73,WNW,296,0.0,8.0,81,0.00,,OVC044,0.00,0.00,VWS V14.01,2013-02-19 22:55:00,
2013-02-19 17:56:00,35.5,30.3,29.73,SW,232,0.0,8.0,81,0.00,,OVC044,0.00,0.00,VWS V14.01,2013-02-19 22:56:00,
2013-02-19 17:57:00,35.5,30.3,29.73,WSW,243,0.0,8.0,81,0.00,,OVC044,0.00,0.00,VWS V14.01,2013-02-19 22:57:00,
2013-02-19 18:00:00,35.6,30.7,29.73,SW,232,5.0,8.0,82,0.00,,OVC044,0.00,0.00,VWS V14.01,2013-02-19 23:00:00,
2013-02-19 18:02:00,35.6,30.4,29.72,WSW,248,5.0,5.0,81,0.00,,OVC044,0.00,0.00,VWS V14.01,2013-02-19 23:02:00,
2013-02-19 18:05:00,35.8,30.9,29.72,West,278,2.0,11.0,82,0.00,,OVC037,0.00,0.00,VWS V14.01,2013-02-19 23:05:00,
2013-02-19 18:06:00,35.9,31.0,29.72,NW,305,6.0,11.0,82,0.00,,OVC037,0.00,0.00,VWS V14.01,2013-02-19 23:06:00,
2013-02-19 18:07:00,35.9,31.0,29.72,WSW,241,6.0,11.0,82,0.00,,OVC037,0.00,0.00,VWS V14.01,2013-02-19 23:07:00,
2013-02-19 18:11:00,36.0,30.8,29.72,SW,230,5.0,11.0,81,0.00,,OVC037,0.00,0.00,VWS V14.01,2013-02-19 23:11:00,
2013-02-19 18:12:00,36.0,30.8,29.72,WSW,251,3.0,11.0,81,0.00,,OVC037,0.00,0.00,VWS V14.01,2013-02-19 23:12:00,
2013-02-19 18:13:00,36.0,31.0,29.72,West,268,4.0,11.0,82,0.00,,OVC037,0.00,0.00,VWS V14.01,2013-02-19 23:13:00,
2013-02-19 18:16:00,36.0,31.0,29.72,West,265,0.0,11.0,82,0.00,,OVC037,0.00,0.00,VWS V14.01,2013-02-19 23:16:00,
2013-02-19 18:18:00,36.0,31.0,29.72,West,264,0.0,11.0,82,0.00,,OVC037,0.00,0.00,VWS V14.01,2013-02-19 23:18:00,
2013-02-19 18:21:00,36.2,31.2,29.72,West,280,5.0,11.0,82,0.00,,OVC037,0.00,0.00,VWS V14.01,2013-02-19 23:21:00,
2013-02-19 18:23:00,36.0,31.0,29.72,West,280,1.0,11.0,82,0.00,,OVC037,0.00,0.00,VWS V14.01,2013-02-19 23:23:00,
2013-02-19 18:24:00,36.0,31.0,29.72,WSW,251,2.0,11.0,82,0.00,,OVC037,0.00,0.00,VWS V14.01,2013-02-19 23:24:00,
2013-02-19 18:26:00,36.0,31.4,29.72,West,274,3.0,11.0,83,0.00,,OVC037,0.00,0.00,VWS V14.01,2013-02-19 23:26:00,
2013-02-19 18:27:00,36.0,31.4,29.72,West,271,6.0,11.0,83,0.00,,OVC037,0.00,0.00,VWS V14.01,2013-02-19 23:27:00,
2013-02-19 18:28:00,36.0,31.4,29.72,West,263,0.0,11.0,83,0.00,,OVC037,0.00,0.00,VWS V14.01,2013-02-19 23:28:00,
2013-02-19 18:29:00,36.0,31.4,29.72,West,280,6.0,11.0,83,0.00,,OVC037,0.00,0.00,VWS V14.01,2013-02-19 23:29:00,
2013-02-19 18:30:00,35.8,32.9,29.66,West,271,0.0,7.0,89,0.01,,FEW080,0.01,0.00,VWS V14.01,2013-02-19 23:30:00,
2013-02-19 18:31:00,36.0,31.4,29.71,West,261,0.0,11.0,83,0.00,,OVC037,0.00,0.00,VWS V14.01,2013-02-19 23:31:00,
2013-02-19 18:33:00,36.0,31.6,29.71,SW,223,0.0,3.0,84,0.00,,OVC037,0.00,0.00,VWS V14.01,2013-02-19 23:33:00,
2013-02-19 18:34:00,36.0,31.6,29.71,West,260,2.0,3.0,84,0.00,,OVC037,0.00,0.00,VWS V14.01,2013-02-19 23:34:00,
2013-02-19 18:38:00,36.0,31.6,29.71,West,263,0.0,6.0,84,0.00,,OVC037,0.00,0.00,VWS V14.01,2013-02-19 23:38:00,
2013-02-19 18:39:00,36.0,31.6,29.71,West,260,0.0,6.0,84,0.00,,OVC037,0.00,0.00,VWS V14.01,2013-02-19 23:39:00,
2013-02-19 18:43:00,36.0,31.9,29.71,WNW,285,3.0,6.0,85,0.00,,OVC037,0.00,0.00,VWS V14.01,2013-02-19 23:43:00,
2013-02-19 18:44:00,36.0,31.9,29.71,West,280,0.0,6.0,85,0.00,,OVC037,0.00,0.00,VWS V14.01,2013-02-19 23:44:00,
2013-02-19 18:45:00,36.0,31.9,29.71,West,280,0.0,6.0,85,0.00,,OVC037,0.00,0.00,VWS V14.01,2013-02-19 23:45:00,
2013-02-19 18:48:00,36.0,31.9,29.69,WSW,257,0.0,6.0,85,0.00,,OVC037,0.00,0.00,VWS V14.01,2013-02-19 23:48:00,
2013-02-19 18:49:00,36.0,31.9,29.69,West,260,1.0,6.0,85,0.00,,OVC037,0.00,0.00,VWS V14.01,2013-02-19 23:49:00,
2013-02-19 18:50:00,36.0,31.9,29.69,WSW,241,0.0,6.0,85,0.00,,OVC037,0.00,0.00,VWS V14.01,2013-02-19 23:50:00,
2013-02-19 18:53:00,36.0,32.2,29.69,WSW,243,2.0,6.0,86,0.00,,OVC037,0.00,0.00,VWS V14.01,2013-02-19 23:53:00,
2013-02-19 18:54:00,36.0,32.2,29.69,SW,233,0.0,6.0,86,0.00,,OVC037,0.00,0.00,VWS V14.01,2013-02-19 23:54:00,
2013-02-19 18:55:00,36.0,32.2,29.69,SW,233,0.0,6.0,86,0.00,,OVC037,0.00,0.00,VWS V14.01,2013-02-19 23:55:00,
2013-02-19 18:58:00,36.0,32.2,29.69,West,267,5.0,6.0,86,0.00,,OVC037,0.00,0.00,VWS V14.01,2013-02-19 23:58:00,
2013-02-19 19:00:00,36.0,32.5,29.69,WSW,253,1.0,6.0,87,0.00,,OVC037,0.00,0.00,VWS V14.01,2013-02-20 00:00:00,
2013-02-19 19:04:00,35.9,32.4,29.68,West,260,0.0,5.0,87,0.00,,OVC023,0.00,0.00,VWS V14.01,2013-02-20 00:04:00,
2013-02-19 19:05:00,35.9,32.4,29.68,WSW,257,0.0,5.0,87,0.00,,OVC023,0.00,0.00,VWS V14.01,2013-02-20 00:05:00,
2013-02-19 19:06:00,35.9,32.4,29.68,WSW,243,0.0,5.0,87,0.00,,OVC023,0.00,0.00,VWS V14.01,2013-02-20 00:06:00,
2013-02-19 19:09:00,35.9,32.4,29.68,West,280,0.0,5.0,87,0.00,,OVC023,0.00,0.00,VWS V14.01,2013-02-20 00:09:00,
2013-02-19 19:10:00,35.9,32.4,29.68,West,264,2.0,7.0,87,0.00,,OVC023,0.00,0.00,VWS V14.01,2013-02-20 00:10:00,
2013-02-19 19:11:00,35.9,32.4,29.68,West,271,0.0,7.0,87,0.00,,OVC023,0.00,0.00,VWS V14.01,2013-02-20 00:11:00,
2013-02-19 19:14:00,35.9,32.4,29.68,WSW,253,0.0,7.0,87,0.00,,OVC023,0.00,0.00,VWS V14.01,2013-02-20 00:14:00,
2013-02-19 19:15:00,35.9,32.7,29.68,WSW,250,0.0,7.0,88,0.00,,OVC023,0.00,0.00,VWS V14.01,2013-02-20 00:15:00,
2013-02-19 19:16:00,35.9,32.7,29.67,WSW,253,0.0,7.0,88,0.00,,OVC023,0.00,0.00,VWS V14.01,2013-02-20 00:16:00,
2013-02-19 19:20:00,35.8,32.6,29.67,WSW,256,0.0,7.0,88,0.00,,OVC023,0.00,0.00,VWS V14.01,2013-02-20 00:20:00,
2013-02-19 19:21:00,35.8,32.6,29.67,West,261,0.0,7.0,88,0.00,,OVC023,0.00,0.00,VWS V14.01,2013-02-20 00:21:00,
2013-02-19 19:22:00,35.8,32.6,29.67,West,264,0.0,7.0,88,0.00,,OVC023,0.00,0.00,VWS V14.01,2013-02-20 00:22:00,
2013-02-19 19:25:00,35.8,32.6,29.67,WSW,256,0.0,7.0,88,0.00,,OVC023,0.00,0.00,VWS V14.01,2013-02-20 00:25:00,
2013-02-19 19:26:00,35.8,32.6,29.67,WSW,250,0.0,7.0,88,0.00,,OVC023,0.00,0.00,VWS V14.01,2013-02-20 00:26:00,
2013-02-19 19:27:00,35.8,32.6,29.67,WSW,254,0.0,7.0,88,0.00,,OVC023,0.00,0.00,VWS V14.01,2013-02-20 00:27:00,
2013-02-19 19:30:00,35.8,32.9,29.67,West,271,0.0,7.0,89,0.01,,OVC023,0.01,0.00,VWS V14.01,2013-02-20 00:30:00,
2013-02-19 19:31:00,35.8,32.9,29.66,West,274,0.0,7.0,89,0.01,,OVC023,0.01,0.00,VWS V14.01,2013-02-20 00:31:00,
2013-02-19 19:32:00,35.8,32.9,29.66,West,271,0.0,0.0,89,0.01,,OVC023,0.01,0.00,VWS V14.01,2013-02-20 00:32:00,
2013-02-19 19:36:00,35.8,32.9,29.66,West,268,0.0,0.0,89,0.01,,OVC023,0.01,0.00,VWS V14.01,2013-02-20 00:36:00,
2013-02-19 19:37:00,35.8,32.9,29.66,West,272,3.0,3.0,89,0.01,,OVC023,0.01,0.00,VWS V14.01,2013-02-20 00:37:00,
2013-02-19 19:41:00,35.8,32.9,29.66,WSW,237,0.0,5.0,89,0.02,,OVC023,0.02,0.00,VWS V14.01,2013-02-20 00:41:00,
2013-02-19 19:42:00,35.8,32.9,29.66,SW,234,0.0,5.0,89,0.02,,OVC023,0.02,0.00,VWS V14.01,2013-02-20 00:42:00,
2013-02-19 19:46:00,35.8,32.9,29.65,WSW,246,0.0,5.0,89,0.02,,OVC023,0.02,0.00,VWS V14.01,2013-02-20 00:46:00,
2013-02-19 19:47:00,35.8,32.9,29.65,West,261,0.0,5.0,89,0.02,,OVC023,0.02,0.00,VWS V14.01,2013-02-20 00:47:00,
2013-02-19 19:48:00,35.8,32.9,29.65,WSW,244,0.0,5.0,89,0.02,,OVC023,0.02,0.00,VWS V14.01,2013-02-20 00:48:00,
2013-02-19 19:51:00,35.8,32.9,29.65,WSW,257,0.0,5.0,89,0.03,,OVC023,0.03,0.00,VWS V14.01,2013-02-20 00:51:00,
2013-02-19 19:52:00,35.8,32.9,29.65,WSW,247,0.0,5.0,89,0.03,,OVC023,0.03,0.00,VWS V14.01,2013-02-20 00:52:00,
2013-02-19 19:53:00,35.8,33.2,29.65,NNE,32,0.0,5.0,90,0.03,,OVC023,0.03,0.00,VWS V14.01,2013-02-20 00:53:00,
2013-02-19 19:56:00,35.8,33.2,29.65,WSW,240,0.0,5.0,90,0.03,,OVC023,0.03,0.00,VWS V14.01,2013-02-20 00:56:00,
2013-02-19 19:57:00,35.8,33.2,29.65,WSW,247,0.0,5.0,90,0.03,,OVC023,0.03,0.00,VWS V14.01,2013-02-20 00:57:00,
2013-02-19 19:58:00,35.8,33.2,29.65,West,274,0.0,5.0,90,0.03,,OVC023,0.03,0.00,VWS V14.01,2013-02-20 00:58:00,
2013-02-19 20:00:00,35.8,33.7,29.58,WNW,301,0.0,0.0,92,0.09,,FEW080,0.10,0.00,VWS V14.01,2013-02-20 01:00:00,
2013-02-19 20:01:00,35.8,33.2,29.64,WNW,285,0.0,5.0,90,0.04,,OVC023,0.04,0.00,VWS V14.01,2013-02-20 01:01:00,
2013-02-19 20:03:00,35.8,33.2,29.64,West,280,0.0,4.0,90,0.04,,OVC017,0.04,0.00,VWS V14.01,2013-02-20 01:03:00,
2013-02-19 20:06:00,35.8,33.2,29.64,WSW,256,1.0,5.0,90,0.04,,OVC017,0.04,0.00,VWS V14.01,2013-02-20 01:06:00,
2013-02-19 20:08:00,35.8,33.4,29.64,West,261,0.0,5.0,91,0.04,,OVC017,0.04,0.00,VWS V14.01,2013-02-20 01:08:00,
2013-02-19 20:12:00,35.9,33.5,29.64,SW,234,0.0,5.0,91,0.05,,OVC017,0.05,0.00,VWS V14.01,2013-02-20 01:12:00,
2013-02-19 20:13:00,35.9,33.5,29.64,WSW,241,0.0,5.0,91,0.05,,OVC017,0.05,0.00,VWS V14.01,2013-02-20 01:13:00,
2013-02-19 20:14:00,35.9,33.5,29.64,WSW,241,0.0,5.0,91,0.05,,OVC017,0.05,0.00,VWS V14.01,2013-02-20 01:14:00,
2013-02-19 20:17:00,35.9,33.5,29.62,WSW,244,0.0,5.0,91,0.05,,OVC017,0.05,0.00,VWS V14.01,2013-02-20 01:17:00,
2013-02-19 20:19:00,35.9,33.5,29.62,SW,230,0.0,5.0,91,0.05,,OVC017,0.05,0.00,VWS V14.01,2013-02-20 01:19:00,
2013-02-19 20:22:00,35.9,33.5,29.62,WSW,256,0.0,5.0,91,0.06,,OVC017,0.06,0.00,VWS V14.01,2013-02-20 01:22:00,
2013-02-19 20:24:00,35.9,33.5,29.62,West,271,0.0,5.0,91,0.06,,OVC017,0.06,0.00,VWS V14.01,2013-02-20 01:24:00,
2013-02-19 20:27:00,35.9,33.5,29.62,West,265,0.0,5.0,91,0.06,,OVC017,0.06,0.00,VWS V14.01,2013-02-20 01:27:00,
2013-02-19 20:29:00,35.9,33.5,29.62,West,270,0.0,5.0,91,0.06,,OVC017,0.06,0.00,VWS V14.01,2013-02-20 01:29:00,
2013-02-19 20:30:00,35.9,33.8,29.62,West,268,0.0,5.0,92,0.06,,OVC017,0.06,0.00,VWS V14.01,2013-02-20 01:30:00,
2013-02-19 20:32:00,35.9,33.8,29.61,West,272,0.0,0.0,92,0.05,,OVC017,0.06,0.00,VWS V14.01,2013-02-20 01:32:00,
2013-02-19 20:35:00,35.9,33.8,29.61,West,260,0.0,0.0,92,0.05,,OVC017,0.06,0.00,VWS V14.01,2013-02-20 01:35:00,
2013-02-19 20:37:00,35.9,33.8,29.61,West,277,0.0,0.0,92,0.05,,OVC017,0.06,0.00,VWS V14.01,2013-02-20 01:37:00,
2013-02-19 20:38:00,35.9,33.8,29.61,West,280,0.0,0.0,92,0.05,,OVC017,0.06,0.00,VWS V14.01,2013-02-20 01:38:00,
2013-02-19 20:40:00,35.9,33.8,29.61,West,280,0.0,0.0,92,0.06,,OVC017,0.07,0.00,VWS V14.01,2013-02-20 01:40:00,
2013-02-19 20:41:00,36.0,33.9,29.61,West,278,0.0,0.0,92,0.06,,OVC017,0.07,0.00,VWS V14.01,2013-02-20 01:41:00,
2013-02-19 20:42:00,36.0,33.9,29.61,West,281,0.0,0.0,92,0.06,,OVC017,0.07,0.00,VWS V14.01,2013-02-20 01:42:00,
2013-02-19 20:43:00,36.0,33.9,29.61,ENE,62,0.0,0.0,92,0.06,,OVC017,0.07,0.00,VWS V14.01,2013-02-20 01:43:00,
2013-02-19 20:45:00,36.0,33.9,29.61,WNW,284,0.0,0.0,92,0.06,,OVC017,0.07,0.00,VWS V14.01,2013-02-20 01:45:00,
2013-02-19 20:46:00,36.0,33.9,29.60,WNW,287,0.0,0.0,92,0.07,,OVC017,0.08,0.00,VWS V14.01,2013-02-20 01:46:00,
2013-02-19 20:48:00,36.0,33.9,29.60,West,277,0.0,0.0,92,0.07,,OVC017,0.08,0.00,VWS V14.01,2013-02-20 01:48:00,
2013-02-19 20:50:00,36.0,33.9,29.60,WNW,289,0.0,0.0,92,0.07,,OVC017,0.08,0.00,VWS V14.01,2013-02-20 01:50:00,
2013-02-19 20:51:00,35.9,33.8,29.60,WNW,289,0.0,0.0,92,0.07,,OVC017,0.08,0.00,VWS V14.01,2013-02-20 01:51:00,
2013-02-19 20:53:00,35.9,33.8,29.60,WNW,295,0.0,0.0,92,0.07,,OVC017,0.08,0.00,VWS V14.01,2013-02-20 01:53:00,
2013-02-19 20:55:00,35.9,33.8,29.60,WNW,287,0.0,0.0,92,0.07,,OVC017,0.08,0.00,VWS V14.01,2013-02-20 01:55:00,
2013-02-19 20:57:00,35.9,33.8,29.60,WNW,294,0.0,0.0,92,0.08,,OVC017,0.09,0.00,VWS V14.01,2013-02-20 01:57:00,
2013-02-19 20:58:00,35.9,33.8,29.60,WNW,291,0.0,0.0,92,0.08,,OVC017,0.09,0.00,VWS V14.01,2013-02-20 01:58:00,
2013-02-19 20:59:00,35.8,33.7,29.60,WNW,291,0.0,0.0,92,0.08,,OVC017,0.09,0.00,VWS V14.01,2013-02-20 01:59:00,
2013-02-19 21:00:00,35.8,33.7,29.60,WNW,292,0.0,0.0,92,0.08,,OVC017,0.09,0.00,VWS V14.01,2013-02-20 02:00:00,
2013-02-19 21:02:00,35.8,33.7,29.58,WNW,296,0.0,0.0,92,0.06,,OVC013,0.10,0.00,VWS V14.01,2013-02-20 02:02:00,
2013-02-19 21:04:00,35.6,33.5,29.58,WNW,292,0.0,0.0,92,0.06,,OVC013,0.10,0.00,VWS V14.01,2013-02-20 02:04:00,
2013-02-19 21:06:00,35.6,33.5,29.58,WNW,287,0.0,0.0,92,0.06,,OVC013,0.10,0.00,VWS V14.01,2013-02-20 02:06:00,
2013-02-19 21:07:00,35.5,33.4,29.58,WNW,292,0.0,0.0,92,0.06,,OVC013,0.10,0.00,VWS V14.01,2013-02-20 02:07:00,
2013-02-19 21:09:00,35.5,33.4,29.58,WNW,292,0.0,0.0,92,0.06,,OVC013,0.10,0.00,VWS V14.01,2013-02-20 02:09:00,
2013-02-19 21:10:00,35.5,33.4,29.58,WNW,295,0.0,0.0,92,0.06,,OVC013,0.10,0.00,VWS V14.01,2013-02-20 02:10:00,
2013-02-19 21:11:00,35.3,33.2,29.58,WNW,287,0.0,0.0,92,0.06,,OVC013,0.10,0.00,VWS V14.01,2013-02-20 02:11:00,
2013-02-19 21:13:00,35.3,33.2,29.58,WNW,296,0.0,0.0,92,0.06,,OVC013,0.10,0.00,VWS V14.01,2013-02-20 02:13:00,
2013-02-19 21:14:00,35.2,33.1,29.58,WNW,291,0.0,0.0,92,0.07,,OVC013,0.11,0.00,VWS V14.01,2013-02-20 02:14:00,
2013-02-19 21:16:00,35.2,33.1,29.57,WSW,250,0.0,0.0,92,0.07,,OVC013,0.11,0.00,VWS V14.01,2013-02-20 02:16:00,
2013-02-19 21:18:00,35.2,33.1,29.57,WSW,253,0.0,0.0,92,0.07,,OVC013,0.11,0.00,VWS V14.01,2013-02-20 02:18:00,
2013-02-19 21:19:00,35.0,32.9,29.57,WSW,256,0.0,0.0,92,0.07,,OVC013,0.11,0.00,VWS V14.01,2013-02-20 02:19:00,
2013-02-19 21:21:00,35.0,32.9,29.57,WSW,258,0.0,0.0,92,0.07,,OVC013,0.11,0.00,VWS V14.01,2013-02-20 02:21:00,
2013-02-19 21:22:00,35.0,32.9,29.57,WSW,244,0.0,0.0,92,0.07,,OVC013,0.11,0.00,VWS V14.01,2013-02-20 02:22:00,
2013-02-19 21:23:00,34.9,32.8,29.57,WSW,251,0.0,0.0,92,0.07,,OVC013,0.11,0.00,VWS V14.01,2013-02-20 02:23:00,
2013-02-19 21:25:00,34.9,32.8,29.57,WSW,250,0.0,0.0,92,0.07,,OVC013,0.11,0.00,VWS V14.01,2013-02-20 02:25:00,
2013-02-19 21:26:00,34.9,32.8,29.57,WSW,243,0.0,0.0,92,0.07,,OVC013,0.11,0.00,VWS V14.01,2013-02-20 02:26:00,
2013-02-19 21:27:00,34.7,32.6,29.57,WSW,253,0.0,0.0,92,0.07,,OVC013,0.11,0.00,VWS V14.01,2013-02-20 02:27:00,
2013-02-19 21:28:00,34.7,32.6,29.57,WSW,251,0.0,0.0,92,0.07,,OVC013,0.11,0.00,VWS V14.01,2013-02-20 02:28:00,
2013-02-19 21:30:00,34.7,32.6,29.57,WSW,244,0.0,0.0,92,0.07,,OVC013,0.11,0.00,VWS V14.01,2013-02-20 02:30:00,
2013-02-19 21:31:00,34.6,32.5,29.56,SW,217,0.0,2.0,92,0.07,,OVC013,0.11,0.00,VWS V14.01,2013-02-20 02:31:00,
2013-02-19 21:33:00,34.6,32.5,29.56,SW,222,0.0,0.0,92,0.05,,OVC013,0.11,0.00,VWS V14.01,2013-02-20 02:33:00,
2013-02-19 21:35:00,34.4,32.3,29.56,SW,232,0.0,0.0,92,0.06,,OVC013,0.12,0.00,VWS V14.01,2013-02-20 02:35:00,
2013-02-19 21:36:00,34.4,32.3,29.56,SW,220,0.0,0.0,92,0.06,,OVC013,0.12,0.00,VWS V14.01,2013-02-20 02:36:00,
2013-02-19 21:38:00,34.3,32.2,29.56,North,354,3.0,3.0,92,0.06,,OVC013,0.12,0.00,VWS V14.01,2013-02-20 02:38:00,
2013-02-19 21:40:00,34.1,32.0,29.56,North,356,0.0,4.0,92,0.06,,OVC013,0.12,0.00,VWS V14.01,2013-02-20 02:40:00,
2013-02-19 21:41:00,34.1,32.0,29.56,SSW,202,0.0,4.0,92,0.07,,OVC013,0.13,0.00,VWS V14.01,2013-02-20 02:41:00,
2013-02-19 21:43:00,34.0,31.9,29.56,SSW,200,0.0,4.0,92,0.07,,OVC013,0.13,0.00,VWS V14.01,2013-02-20 02:43:00,
2013-02-19 21:45:00,34.0,31.9,29.56,SSW,195,2.0,4.0,92,0.07,,OVC013,0.13,0.00,VWS V14.01,2013-02-20 02:45:00,
2013-02-19 21:47:00,33.8,31.7,29.54,NE,44,3.0,6.0,92,0.08,,OVC013,0.14,0.00,VWS V14.01,2013-02-20 02:47:00,
2013-02-19 21:49:00,33.7,31.6,29.54,NE,49,0.0,6.0,92,0.08,,OVC013,0.14,0.00,VWS V14.01,2013-02-20 02:49:00,
2013-02-19 21:50:00,33.5,31.4,29.54,NE,47,2.0,6.0,92,0.08,,OVC013,0.14,0.00,VWS V14.01,2013-02-20 02:50:00,
2013-02-19 21:52:00,33.4,31.3,29.54,North,350,2.0,6.0,92,0.09,,OVC013,0.15,0.00,VWS V14.01,2013-02-20 02:52:00,
2013-02-19 21:54:00,33.4,31.3,29.54,NNW,343,6.0,6.0,92,0.09,,OVC013,0.15,0.00,VWS V14.01,2013-02-20 02:54:00,
2013-02-19 21:55:00,33.2,31.1,29.54,North,350,5.0,6.0,92,0.10,,OVC013,0.16,0.00,VWS V14.01,2013-02-20 02:55:00,
2013-02-19 21:57:00,33.1,31.0,29.54,North,352,2.0,6.0,92,0.10,,OVC013,0.16,0.00,VWS V14.01,2013-02-20 02:57:00,
2013-02-19 21:59:00,32.9,30.8,29.54,East,85,1.0,6.0,92,0.10,,OVC013,0.16,0.00,VWS V14.01,2013-02-20 02:59:00,
2013-02-19 22:00:00,32.9,30.8,29.54,NE,48,5.0,6.0,92,0.10,,OVC013,0.16,0.00,VWS V14.01,2013-02-20 03:00:00,
2013-02-19 22:02:00,32.8,30.7,29.51,NNW,346,1.0,6.0,92,0.06,,OVC011,0.16,0.00,VWS V14.01,2013-02-20 03:02:00,
2013-02-19 22:04:00,32.7,30.6,29.51,ENE,62,0.0,6.0,92,0.06,,OVC011,0.16,0.00,VWS V14.01,2013-02-20 03:04:00,
2013-02-19 22:05:00,32.7,30.6,29.51,ENE,62,0.0,6.0,92,0.06,,OVC011,0.16,0.00,VWS V14.01,2013-02-20 03:05:00,
2013-02-19 22:06:00,32.7,30.6,29.51,ENE,61,0.0,6.0,92,0.06,,OVC011,0.16,0.00,VWS V14.01,2013-02-20 03:06:00,
2013-02-19 22:07:00,32.7,30.6,29.51,ENE,62,0.0,6.0,92,0.06,,OVC011,0.16,0.00,VWS V14.01,2013-02-20 03:07:00,
2013-02-19 22:09:00,32.5,30.4,29.51,NE,37,0.0,6.0,92,0.06,,OVC011,0.16,0.00,VWS V14.01,2013-02-20 03:09:00,
2013-02-19 22:11:00,32.5,30.7,29.51,NE,51,0.0,6.0,93,0.06,,OVC011,0.16,0.00,VWS V14.01,2013-02-20 03:11:00,
2013-02-19 22:13:00,32.5,30.7,29.51,NE,41,0.0,6.0,93,0.06,,OVC011,0.16,0.00,VWS V14.01,2013-02-20 03:13:00,
2013-02-19 22:15:00,32.5,30.7,29.51,North,359,0.0,6.0,93,0.06,,OVC011,0.16,0.00,VWS V14.01,2013-02-20 03:15:00,
2013-02-19 22:16:00,32.5,30.7,29.52,North,359,0.0,6.0,93,0.06,,OVC011,0.16,0.00,VWS V14.01,2013-02-20 03:16:00,
2013-02-19 22:17:00,32.5,30.7,29.52,North,359,0.0,6.0,93,0.06,,OVC011,0.16,0.00,VWS V14.01,2013-02-20 03:17:00,
2013-02-19 22:19:00,32.5,30.7,29.52,North,359,0.0,6.0,93,0.06,,OVC011,0.16,0.00,VWS V14.01,2013-02-20 03:19:00,
2013-02-19 22:20:00,32.5,30.7,29.52,North,359,1.0,6.0,93,0.06,,OVC011,0.16,0.00,VWS V14.01,2013-02-20 03:20:00,
2013-02-19 22:21:00,32.5,30.7,29.52,North,350,2.0,6.0,93,0.07,,OVC011,0.17,0.00,VWS V14.01,2013-02-20 03:21:00,
2013-02-19 22:22:00,32.5,30.7,29.52,North,350,0.0,6.0,93,0.07,,OVC011,0.17,0.00,VWS V14.01,2013-02-20 03:22:00,
2013-02-19 22:24:00,32.5,30.7,29.52,North,359,0.0,6.0,93,0.07,,OVC011,0.17,0.00,VWS V14.01,2013-02-20 03:24:00,
2013-02-19 22:25:00,32.5,30.7,29.52,North,359,0.0,6.0,93,0.07,,OVC011,0.17,0.00,VWS V14.01,2013-02-20 03:25:00,
2013-02-19 22:26:00,32.5,30.7,29.52,North,359,0.0,6.0,93,0.07,,OVC011,0.17,0.00,VWS V14.01,2013-02-20 03:26:00,
2013-02-19 22:28:00,32.5,30.7,29.52,North,357,0.0,6.0,93,0.07,,OVC011,0.17,0.00,VWS V14.01,2013-02-20 03:28:00,
2013-02-19 22:30:00,32.4,30.6,29.52,North,359,0.0,6.0,93,0.07,,OVC011,0.17,0.00,VWS V14.01,2013-02-20 03:30:00,
2013-02-19 22:31:00,32.4,30.6,29.50,North,359,0.0,6.0,93,0.07,,OVC011,0.17,0.00,VWS V14.01,2013-02-20 03:31:00,
2013-02-19 22:33:00,32.4,30.6,29.50,North,352,0.0,2.0,93,0.06,,OVC011,0.17,0.00,VWS V14.01,2013-02-20 03:33:00,
2013-02-19 22:35:00,32.4,30.6,29.50,North,352,0.0,2.0,93,0.07,,OVC011,0.18,0.00,VWS V14.01,2013-02-20 03:35:00,
2013-02-19 22:37:00,32.4,30.6,29.50,North,353,0.0,2.0,93,0.07,,OVC011,0.18,0.00,VWS V14.01,2013-02-20 03:37:00,
2013-02-19 22:39:00,32.4,30.6,29.50,North,353,0.0,2.0,93,0.07,,OVC011,0.18,0.00,VWS V14.01,2013-02-20 03:39:00,
2013-02-19 22:40:00,32.4,30.6,29.50,North,353,0.0,2.0,93,0.07,,OVC011,0.18,0.00,VWS V14.01,2013-02-20 03:40:00,
2013-02-19 22:41:00,32.4,30.6,29.50,North,353,0.0,2.0,93,0.07,,OVC011,0.18,0.00,VWS V14.01,2013-02-20 03:41:00,
2013-02-19 22:42:00,32.4,30.6,29.50,North,353,0.0,2.0,93,0.08,,OVC011,0.19,0.00,VWS V14.01,2013-02-20 03:42:00,
2013-02-19 22:45:00,32.2,30.4,29.50,NW,323,0.0,5.0,93,0.08,,OVC011,0.19,0.00,VWS V14.01,2013-02-20 03:45:00,
2013-02-19 22:47:00,32.2,30.4,29.50,NNW,332,0.0,5.0,93,0.08,,OVC011,0.19,0.00,VWS V14.01,2013-02-20 03:47:00,
2013-02-19 22:48:00,32.2,30.4,29.50,NNW,332,0.0,5.0,93,0.08,,OVC011,0.19,0.00,VWS V14.01,2013-02-20 03:48:00,
2013-02-19 22:51:00,32.2,30.4,29.50,North,353,5.0,5.0,93,0.08,,OVC011,0.19,0.00,VWS V14.01,2013-02-20 03:51:00,
2013-02-19 22:53:00,32.2,30.4,29.50,NNW,329,0.0,6.0,93,0.08,,OVC011,0.19,0.00,VWS V14.01,2013-02-20 03:53:00,
2013-02-19 22:56:00,32.2,30.4,29.50,NNW,335,0.0,6.0,93,0.09,,OVC011,0.20,0.00,VWS V14.01,2013-02-20 03:56:00,
2013-02-19 22:58:00,32.2,30.4,29.50,NNW,339,0.0,6.0,93,0.09,,OVC011,0.20,0.00,VWS V14.01,2013-02-20 03:58:00,
2013-02-19 23:00:00,32.2,30.7,29.43,North,354,0.0,6.0,94,0.05,,FEW080,0.22,0.00,VWS V14.01,2013-02-20 04:00:00,
2013-02-19 23:01:00,32.2,30.4,29.50,NNW,342,2.0,6.0,93,0.09,,OVC011,0.20,0.00,VWS V14.01,2013-02-20 04:01:00,
2013-02-19 23:03:00,32.2,30.4,29.50,North,350,1.0,3.0,93,0.04,,OVC003,0.20,0.00,VWS V14.01,2013-02-20 04:03:00,
2013-02-19 23:06:00,32.2,30.7,29.50,North,352,0.0,3.0,94,0.04,,OVC003,0.20,0.00,VWS V14.01,2013-02-20 04:06:00,
2013-02-19 23:09:00,32.2,30.7,29.50,North,350,0.0,3.0,94,0.04,,OVC003,0.20,0.00,VWS V14.01,2013-02-20 04:09:00,
2013-02-19 23:11:00,32.2,30.7,29.50,NNW,335,0.0,3.0,94,0.04,,OVC003,0.20,0.00,VWS V14.01,2013-02-20 04:11:00,
2013-02-19 23:14:00,32.2,30.7,29.50,NNW,336,0.0,3.0,94,0.04,,OVC003,0.20,0.00,VWS V14.01,2013-02-20 04:14:00,
2013-02-19 23:15:00,32.2,30.7,29.50,NNW,337,0.0,3.0,94,0.04,,OVC003,0.20,0.00,VWS V14.01,2013-02-20 04:15:00,
2013-02-19 23:16:00,32.2,30.7,29.49,North,352,0.0,3.0,94,0.05,,OVC003,0.21,0.00,VWS V14.01,2013-02-20 04:16:00,
2013-02-19 23:17:00,32.2,30.7,29.49,North,354,0.0,3.0,94,0.05,,OVC003,0.21,0.00,VWS V14.01,2013-02-20 04:17:00,
2013-02-19 23:19:00,32.2,30.7,29.49,North,354,0.0,3.0,94,0.05,,OVC003,0.21,0.00,VWS V14.01,2013-02-20 04:19:00,
2013-02-19 23:20:00,32.2,30.7,29.49,North,356,0.0,3.0,94,0.05,,OVC003,0.21,0.00,VWS V14.01,2013-02-20 04:20:00,
2013-02-19 23:22:00,32.2,30.7,29.49,North,357,0.0,3.0,94,0.05,,OVC003,0.21,0.00,VWS V14.01,2013-02-20 04:22:00,
2013-02-19 23:24:00,32.2,30.7,29.49,North,357,0.0,3.0,94,0.05,,OVC003,0.21,0.00,VWS V14.01,2013-02-20 04:24:00,
2013-02-19 23:26:00,32.2,30.7,29.49,North,359,0.0,3.0,94,0.05,,OVC003,0.21,0.00,VWS V14.01,2013-02-20 04:26:00,
2013-02-19 23:27:00,32.2,30.7,29.49,North,359,0.0,3.0,94,0.06,,OVC003,0.22,0.00,VWS V14.01,2013-02-20 04:27:00,
2013-02-19 23:30:00,32.2,30.7,29.49,North,357,0.0,3.0,94,0.06,,OVC003,0.22,0.00,VWS V14.01,2013-02-20 04:30:00,
2013-02-19 23:31:00,32.2,30.7,29.47,North,357,0.0,3.0,94,0.06,,OVC003,0.22,0.00,VWS V14.01,2013-02-20 04:31:00,
2013-02-19 23:32:00,32.2,30.7,29.47,North,359,0.0,0.0,94,0.05,,OVC003,0.22,0.00,VWS V14.01,2013-02-20 04:32:00,
2013-02-19 23:35:00,32.2,30.7,29.47,North,357,0.0,0.0,94,0.05,,OVC003,0.22,0.00,VWS V14.01,2013-02-20 04:35:00,
2013-02-19 23:36:00,32.2,30.7,29.47,North,359,1.0,1.0,94,0.05,,OVC003,0.22,0.00,VWS V14.01,2013-02-20 04:36:00,
2013-02-19 23:37:00,32.2,30.7,29.47,North,359,1.0,3.0,94,0.05,,OVC003,0.22,0.00,VWS V14.01,2013-02-20 04:37:00,
2013-02-19 23:38:00,32.2,30.7,29.47,WSW,256,0.0,3.0,94,0.05,,OVC003,0.22,0.00,VWS V14.01,2013-02-20 04:38:00,
2013-02-19 23:41:00,32.2,30.7,29.47,North,359,0.0,3.0,94,0.05,,OVC003,0.22,0.00,VWS V14.01,2013-02-20 04:41:00,
2013-02-19 23:43:00,32.2,30.7,29.47,North,350,0.0,3.0,94,0.05,,OVC003,0.22,0.00,VWS V14.01,2013-02-20 04:43:00,
2013-02-19 23:46:00,32.2,30.7,29.45,North,352,0.0,3.0,94,0.05,,OVC003,0.22,0.00,VWS V14.01,2013-02-20 04:46:00,
2013-02-19 23:48:00,32.2,30.7,29.45,NE,40,0.0,3.0,94,0.05,,OVC003,0.22,0.00,VWS V14.01,2013-02-20 04:48:00,
2013-02-19 23:49:00,32.2,30.7,29.45,NE,40,1.0,3.0,94,0.05,,OVC003,0.22,0.00,VWS V14.01,2013-02-20 04:49:00,
2013-02-19 23:51:00,32.2,30.7,29.45,NNW,342,3.0,3.0,94,0.05,,OVC003,0.22,0.00,VWS V14.01,2013-02-20 04:51:00,
2013-02-19 23:54:00,32.2,30.7,29.45,NNW,340,6.0,6.0,94,0.05,,OVC003,0.22,0.00,VWS V14.01,2013-02-20 04:54:00,
2013-02-19 23:56:00,32.2,30.7,29.45,North,350,0.0,6.0,94,0.05,,OVC003,0.22,0.00,VWS V14.01,2013-02-20 04:56:00,
2013-02-19 23:59:00,32.2,30.7,29.45,NE,47,2.0,6.0,94,0.05,,OVC003,0.22,0.00,VWS V14.01,2013-02-20 04:59:00,